Wetterdaten: Montag, 21.11.2016
Datum Zeit Temp. Aussen Temp. o. S. +5cm Feuchte Auss BlattFeu 1 Luftdruck Regen Sonnenschein Regendauer Solar Windben Empfang
21.11.2016 00:00 11,2 C 11,1 C 8,9 C 91 % 0 lf 999,4 hPa 0,0 l/m 0 min 0 min 5 W/m 10,5 km/h (2 Bft) 95,74 %
21.11.2016 00:02 11,2 C 11,1 C 8,9 C 91 % 0 lf 999,4 hPa 0,0 l/m 0 min 0 min 5 W/m 12,6 km/h (3 Bft) 92,86 %
21.11.2016 00:05 11,1 C 11,1 C 8,9 C 91 % 0 lf 999,5 hPa 0,0 l/m 0 min 0 min 5 W/m 14,6 km/h (3 Bft) 98,59 %
21.11.2016 00:06 11,1 C 11,1 C 8,9 C 91 % 0 lf 999,5 hPa 0,0 l/m 0 min 0 min 5 W/m 8,4 km/h (2 Bft) 95,65 %
21.11.2016 00:08 11,2 C 11,1 C 8,9 C 91 % 0 lf 999,4 hPa 0,0 l/m 0 min 0 min 5 W/m 8,4 km/h (2 Bft) 93,62 %
21.11.2016 00:10 11,1 C 11,1 C 8,9 C 91 % 0 lf 999,4 hPa 0,0 l/m 0 min 0 min 5 W/m 12,6 km/h (3 Bft) 97,87 %
21.11.2016 00:12 11,1 C 11,7 C 8,9 C 90 % 0 lf 999,5 hPa 0,0 l/m 0 min 0 min 5 W/m 10,5 km/h (2 Bft) 95,74 %
21.11.2016 00:14 11,1 C 11,7 C 8,9 C 90 % 0 lf 999,5 hPa 0,0 l/m 0 min 0 min 5 W/m 12,6 km/h (3 Bft) 91,30 %
21.11.2016 00:16 11,1 C 11,7 C 8,9 C 90 % 0 lf 999,5 hPa 0,0 l/m 0 min 0 min 5 W/m 12,6 km/h (3 Bft) 95,74 %
21.11.2016 00:18 11,2 C 11,7 C 8,9 C 90 % 0 lf 999,5 hPa 0,0 l/m 0 min 0 min 5 W/m 10,5 km/h (2 Bft) 95,74 %
21.11.2016 00:20 11,2 C 11,7 C 8,9 C 90 % 0 lf 999,5 hPa 0,0 l/m 0 min 0 min 5 W/m 12,6 km/h (3 Bft) 93,62 %
21.11.2016 00:22 11,2 C 11,7 C 8,9 C 90 % 0 lf 999,4 hPa 0,0 l/m 0 min 0 min 5 W/m 10,5 km/h (2 Bft) 95,74 %
21.11.2016 00:24 11,2 C 11,7 C 8,9 C 90 % 0 lf 999,3 hPa 0,0 l/m 0 min 0 min 5 W/m 8,4 km/h (2 Bft) 95,74 %
21.11.2016 00:26 11,2 C 11,7 C 8,9 C 90 % 0 lf 999,3 hPa 0,0 l/m 0 min 0 min 5 W/m 10,5 km/h (2 Bft) 95,65 %
21.11.2016 00:28 11,2 C 11,7 C 8,9 C 90 % 0 lf 999,2 hPa 0,0 l/m 0 min 0 min 5 W/m 8,4 km/h (2 Bft) 91,49 %
21.11.2016 00:30 11,2 C 11,7 C 9,4 C 90 % 0 lf 999,3 hPa 0,0 l/m 0 min 0 min 5 W/m 14,6 km/h (3 Bft) 93,62 %
21.11.2016 00:32 11,2 C 11,1 C 9,4 C 90 % 0 lf 999,3 hPa 0,0 l/m 0 min 0 min 5 W/m 10,5 km/h (2 Bft) 95,74 %
21.11.2016 00:34 11,2 C 11,7 C 9,4 C 90 % 0 lf 999,2 hPa 0,0 l/m 0 min 0 min 5 W/m 10,5 km/h (2 Bft) 93,62 %
21.11.2016 00:36 11,2 C 11,7 C 9,4 C 90 % 0 lf 999,2 hPa 0,0 l/m 0 min 0 min 5 W/m 10,5 km/h (2 Bft) 95,65 %
21.11.2016 00:38 11,2 C 11,1 C 9,4 C 90 % 0 lf 999,1 hPa 0,0 l/m 0 min 0 min 5 W/m 8,4 km/h (2 Bft) 97,87 %
21.11.2016 00:40 11,2 C 11,7 C 9,4 C 90 % 0 lf 999,0 hPa 0,0 l/m 0 min 0 min 5 W/m 12,6 km/h (3 Bft) 95,74 %
21.11.2016 00:42 11,2 C 11,1 C 9,4 C 90 % 0 lf 999,0 hPa 0,0 l/m 0 min 0 min 5 W/m 12,6 km/h (3 Bft) 95,74 %
21.11.2016 00:44 11,2 C 11,1 C 9,4 C 90 % 0 lf 999,1 hPa 0,0 l/m 0 min 0 min 5 W/m 8,4 km/h (2 Bft) 95,74 %
21.11.2016 00:46 11,2 C 11,1 C 8,9 C 90 % 0 lf 999,1 hPa 0,0 l/m 0 min 0 min 5 W/m 6,3 km/h (2 Bft) 95,74 %
21.11.2016 00:48 11,2 C 11,1 C 8,9 C 90 % 0 lf 999,0 hPa 0,0 l/m 0 min 0 min 5 W/m 8,4 km/h (2 Bft) 97,83 %
21.11.2016 00:50 11,2 C 11,1 C 8,9 C 90 % 0 lf 999,0 hPa 0,0 l/m 0 min 0 min 5 W/m 12,6 km/h (3 Bft) 97,87 %
21.11.2016 00:52 11,2 C 11,1 C 8,9 C 90 % 0 lf 999,1 hPa 0,0 l/m 0 min 0 min 5 W/m 12,6 km/h (3 Bft) 95,74 %
21.11.2016 00:54 11,2 C 11,1 C 8,9 C 90 % 0 lf 999,1 hPa 0,0 l/m 0 min 0 min 5 W/m 10,5 km/h (2 Bft) 97,87 %
21.11.2016 00:56 11,2 C 11,1 C 8,9 C 90 % 0 lf 999,1 hPa 0,0 l/m 0 min 0 min 5 W/m 12,6 km/h (3 Bft) 93,62 %
21.11.2016 00:58 11,1 C 11,1 C 9,4 C 90 % 0 lf 999,1 hPa 0,0 l/m 0 min 0 min 5 W/m 10,5 km/h (2 Bft) 95,74 %
21.11.2016 01:00 11,1 C 11,7 C 9,4 C 89 % 0 lf 999,1 hPa 0,0 l/m 0 min 0 min 5 W/m 12,6 km/h (3 Bft) 95,74 %
21.11.2016 01:02 11,1 C 11,7 C 9,4 C 89 % 0 lf 999,1 hPa 0,0 l/m 0 min 0 min 5 W/m 10,5 km/h (2 Bft) 97,87 %
21.11.2016 01:04 11,1 C 11,7 C 9,4 C 89 % 0 lf 999,1 hPa 0,0 l/m 0 min 0 min 5 W/m 10,5 km/h (2 Bft) 97,87 %
21.11.2016 01:06 11,1 C 11,7 C 9,4 C 89 % 0 lf 999,1 hPa 0,0 l/m 0 min 0 min 5 W/m 10,5 km/h (2 Bft) 95,74 %
21.11.2016 01:08 11,1 C 11,7 C 9,4 C 89 % 0 lf 999,1 hPa 0,0 l/m 0 min 0 min 5 W/m 14,6 km/h (3 Bft) 89,36 %
21.11.2016 01:10 11,1 C 11,7 C 9,4 C 89 % 0 lf 999,1 hPa 0,0 l/m 0 min 0 min 5 W/m 10,5 km/h (2 Bft) 97,87 %
21.11.2016 01:12 11,2 C 11,7 C 9,4 C 89 % 0 lf 999,1 hPa 0,0 l/m 0 min 0 min 5 W/m 10,5 km/h (2 Bft) 95,65 %
21.11.2016 01:14 11,2 C 11,7 C 9,4 C 89 % 0 lf 999,1 hPa 0,0 l/m 0 min 0 min 5 W/m 14,6 km/h (3 Bft) 97,87 %
21.11.2016 01:16 11,2 C 11,7 C 9,4 C 89 % 0 lf 999,1 hPa 0,0 l/m 0 min 0 min 5 W/m 14,6 km/h (3 Bft) 93,62 %
21.11.2016 01:18 11,2 C 11,7 C 9,4 C 89 % 0 lf 999,1 hPa 0,0 l/m 0 min 0 min 5 W/m 14,6 km/h (3 Bft) 97,87 %
21.11.2016 01:20 11,2 C 11,7 C 9,4 C 89 % 0 lf 999,1 hPa 0,0 l/m 0 min 0 min 5 W/m 14,6 km/h (3 Bft) 100,00 %
21.11.2016 01:22 11,2 C 11,7 C 9,4 C 89 % 0 lf 999,1 hPa 0,0 l/m 0 min 0 min 5 W/m 12,6 km/h (3 Bft) 97,87 %
21.11.2016 01:24 11,2 C 11,7 C 9,4 C 89 % 0 lf 999,1 hPa 0,0 l/m 0 min 0 min 5 W/m 16,7 km/h (3 Bft) 91,30 %
21.11.2016 01:26 11,2 C 11,7 C 9,4 C 89 % 0 lf 999,1 hPa 0,0 l/m 0 min 0 min 5 W/m 14,6 km/h (3 Bft) 97,87 %
21.11.2016 01:28 11,2 C 11,7 C 9,4 C 89 % 0 lf 999,0 hPa 0,0 l/m 0 min 0 min 5 W/m 12,6 km/h (3 Bft) 97,87 %
21.11.2016 01:30 11,2 C 11,7 C 9,4 C 89 % 0 lf 998,9 hPa 0,0 l/m 0 min 0 min 5 W/m 12,6 km/h (3 Bft) 97,87 %
21.11.2016 01:32 11,2 C 11,7 C 9,4 C 89 % 0 lf 998,8 hPa 0,0 l/m 0 min 0 min 5 W/m 14,6 km/h (3 Bft) 95,74 %
21.11.2016 01:34 11,2 C 11,7 C 9,4 C 89 % 0 lf 998,8 hPa 0,0 l/m 0 min 0 min 5 W/m 8,4 km/h (2 Bft) 97,87 %
21.11.2016 01:36 11,2 C 11,7 C 9,4 C 89 % 0 lf 998,8 hPa 0,0 l/m 0 min 0 min 5 W/m 12,6 km/h (3 Bft) 97,83 %
21.11.2016 01:38 11,2 C 11,7 C 9,4 C 89 % 0 lf 998,8 hPa 0,0 l/m 0 min 0 min 5 W/m 14,6 km/h (3 Bft) 97,87 %
21.11.2016 01:40 11,2 C 11,7 C 9,4 C 89 % 0 lf 999,0 hPa 0,0 l/m 0 min 0 min 5 W/m 12,6 km/h (3 Bft) 97,87 %
21.11.2016 01:42 11,2 C 11,7 C 9,4 C 89 % 0 lf 999,1 hPa 0,0 l/m 0 min 0 min 5 W/m 16,7 km/h (3 Bft) 93,62 %
21.11.2016 01:44 11,2 C 11,7 C 9,4 C 89 % 0 lf 999,1 hPa 0,0 l/m 0 min 0 min 5 W/m 14,6 km/h (3 Bft) 93,62 %
21.11.2016 01:46 11,2 C 11,7 C 9,4 C 89 % 0 lf 999,1 hPa 0,0 l/m 0 min 0 min 5 W/m 14,6 km/h (3 Bft) 95,74 %
21.11.2016 01:48 11,2 C 11,7 C 9,4 C 89 % 0 lf 999,1 hPa 0,0 l/m 0 min 0 min 5 W/m 14,6 km/h (3 Bft) 95,65 %
21.11.2016 01:50 11,2 C 11,7 C 9,4 C 89 % 0 lf 999,0 hPa 0,0 l/m 0 min 0 min 5 W/m 14,6 km/h (3 Bft) 97,87 %
21.11.2016 01:52 11,3 C 11,7 C 9,4 C 89 % 0 lf 999,0 hPa 0,0 l/m 0 min 0 min 5 W/m 12,6 km/h (3 Bft) 95,74 %
21.11.2016 01:54 11,3 C 11,7 C 9,4 C 89 % 0 lf 999,0 hPa 0,0 l/m 0 min 0 min 5 W/m 12,6 km/h (3 Bft) 93,62 %
21.11.2016 01:56 11,3 C 11,7 C 9,4 C 88 % 0 lf 999,0 hPa 0,0 l/m 0 min 0 min 5 W/m 12,6 km/h (3 Bft) 91,49 %
21.11.2016 01:58 11,3 C 11,7 C 9,4 C 88 % 0 lf 999,0 hPa 0,0 l/m 0 min 0 min 5 W/m 12,6 km/h (3 Bft) 95,65 %
21.11.2016 02:00 11,3 C 11,7 C 9,4 C 88 % 0 lf 999,0 hPa 0,0 l/m 0 min 0 min 5 W/m 14,6 km/h (3 Bft) 95,74 %
21.11.2016 02:02 11,3 C 11,7 C 9,4 C 88 % 0 lf 998,9 hPa 0,0 l/m 0 min 0 min 5 W/m 18,8 km/h (3 Bft) 93,62 %
21.11.2016 02:04 11,3 C 11,7 C 9,4 C 88 % 0 lf 998,9 hPa 0,0 l/m 0 min 0 min 5 W/m 14,6 km/h (3 Bft) 93,62 %
21.11.2016 02:06 11,3 C 11,7 C 9,4 C 88 % 0 lf 998,9 hPa 0,0 l/m 0 min 0 min 5 W/m 12,6 km/h (3 Bft) 93,62 %
21.11.2016 02:08 11,3 C 11,7 C 9,4 C 88 % 0 lf 999,0 hPa 0,0 l/m 0 min 0 min 5 W/m 14,6 km/h (3 Bft) 89,36 %
21.11.2016 02:10 11,4 C 12,2 C 9,4 C 88 % 0 lf 998,9 hPa 0,0 l/m 0 min 0 min 5 W/m 18,8 km/h (3 Bft) 91,30 %
21.11.2016 02:12 11,4 C 12,2 C 10,0 C 88 % 0 lf 998,9 hPa 0,0 l/m 0 min 0 min 5 W/m 14,6 km/h (3 Bft) 93,62 %
21.11.2016 02:14 11,4 C 12,2 C 10,0 C 87 % 0 lf 998,9 hPa 0,0 l/m 0 min 0 min 5 W/m 16,7 km/h (3 Bft) 93,62 %
21.11.2016 02:16 11,4 C 12,2 C 10,0 C 87 % 0 lf 998,8 hPa 0,0 l/m 0 min 0 min 5 W/m 14,6 km/h (3 Bft) 93,62 %
21.11.2016 02:18 11,5 C 12,2 C 10,0 C 87 % 0 lf 998,9 hPa 0,0 l/m 0 min 0 min 5 W/m 16,7 km/h (3 Bft) 93,62 %
21.11.2016 02:20 11,5 C 12,2 C 10,0 C 87 % 0 lf 998,8 hPa 0,0 l/m 0 min 0 min 5 W/m 18,8 km/h (3 Bft) 91,49 %
21.11.2016 02:22 11,5 C 12,2 C 10,0 C 87 % 0 lf 998,9 hPa 0,0 l/m 0 min 0 min 5 W/m 20,9 km/h (4 Bft) 93,48 %
21.11.2016 02:24 11,6 C 12,2 C 10,0 C 87 % 0 lf 998,9 hPa 0,0 l/m 0 min 0 min 5 W/m 18,8 km/h (3 Bft) 91,49 %
21.11.2016 02:26 11,6 C 12,2 C 10,0 C 86 % 0 lf 998,8 hPa 0,0 l/m 0 min 0 min 5 W/m 12,6 km/h (3 Bft) 93,62 %
21.11.2016 02:28 11,6 C 12,2 C 10,0 C 86 % 0 lf 998,8 hPa 0,0 l/m 0 min 0 min 5 W/m 18,8 km/h (3 Bft) 95,74 %
21.11.2016 02:30 11,7 C 12,2 C 10,0 C 86 % 0 lf 998,9 hPa 0,0 l/m 0 min 0 min 5 W/m 18,8 km/h (3 Bft) 93,62 %
21.11.2016 02:32 11,7 C 12,2 C 10,0 C 86 % 0 lf 998,9 hPa 0,0 l/m 0 min 0 min 5 W/m 16,7 km/h (3 Bft) 95,74 %
21.11.2016 02:34 11,7 C 12,2 C 10,0 C 86 % 0 lf 998,9 hPa 0,0 l/m 0 min 0 min 5 W/m 18,8 km/h (3 Bft) 95,65 %
21.11.2016 02:36 11,8 C 12,2 C 10,0 C 85 % 0 lf 998,9 hPa 0,0 l/m 0 min 0 min 5 W/m 20,9 km/h (4 Bft) 97,83 %
21.11.2016 02:38 11,8 C 12,2 C 10,0 C 85 % 0 lf 998,9 hPa 0,0 l/m 0 min 0 min 5 W/m 18,8 km/h (3 Bft) 95,74 %
21.11.2016 02:40 11,8 C 12,2 C 10,0 C 85 % 0 lf 998,9 hPa 0,0 l/m 0 min 0 min 5 W/m 18,8 km/h (3 Bft) 93,62 %
21.11.2016 02:42 11,8 C 12,2 C 10,0 C 85 % 0 lf 998,9 hPa 0,0 l/m 0 min 0 min 5 W/m 14,6 km/h (3 Bft) 95,74 %
21.11.2016 02:44 11,9 C 12,2 C 10,0 C 85 % 0 lf 999,0 hPa 0,0 l/m 0 min 0 min 5 W/m 14,6 km/h (3 Bft) 97,87 %
21.11.2016 02:46 11,9 C 12,2 C 10,0 C 85 % 0 lf 998,9 hPa 0,0 l/m 0 min 0 min 5 W/m 14,6 km/h (3 Bft) 93,48 %
21.11.2016 02:48 11,9 C 12,2 C 10,0 C 85 % 0 lf 999,0 hPa 0,0 l/m 0 min 0 min 5 W/m 14,6 km/h (3 Bft) 95,74 %
21.11.2016 02:50 11,9 C 12,2 C 10,0 C 84 % 0 lf 999,0 hPa 0,0 l/m 0 min 0 min 5 W/m 16,7 km/h (3 Bft) 93,62 %
21.11.2016 02:52 11,9 C 12,2 C 10,0 C 84 % 0 lf 999,0 hPa 0,0 l/m 0 min 0 min 5 W/m 16,7 km/h (3 Bft) 95,74 %
21.11.2016 02:54 12,0 C 12,2 C 10,0 C 84 % 0 lf 999,1 hPa 0,0 l/m 0 min 0 min 5 W/m 18,8 km/h (3 Bft) 100,00 %
21.11.2016 02:56 12,0 C 12,2 C 10,0 C 84 % 0 lf 999,0 hPa 0,0 l/m 0 min 0 min 5 W/m 16,7 km/h (3 Bft) 95,74 %
21.11.2016 02:58 12,1 C 12,2 C 10,6 C 84 % 0 lf 999,0 hPa 0,0 l/m 0 min 0 min 5 W/m 18,8 km/h (3 Bft) 97,83 %
21.11.2016 03:00 12,1 C 12,2 C 10,6 C 84 % 0 lf 999,0 hPa 0,0 l/m 0 min 0 min 5 W/m 16,7 km/h (3 Bft) 95,74 %
21.11.2016 03:02 12,1 C 12,2 C 10,6 C 84 % 0 lf 999,0 hPa 0,0 l/m 0 min 0 min 5 W/m 20,9 km/h (4 Bft) 95,74 %
21.11.2016 03:04 12,1 C 12,2 C 10,6 C 84 % 0 lf 999,0 hPa 0,0 l/m 0 min 2 min 5 W/m 16,7 km/h (3 Bft) 100,00 %
21.11.2016 03:06 12,1 C 12,2 C 10,6 C 84 % 0 lf 999,0 hPa 0,0 l/m 0 min 0 min 5 W/m 14,6 km/h (3 Bft) 97,87 %
21.11.2016 03:08 12,2 C 12,2 C 10,6 C 83 % 0 lf 999,0 hPa 0,0 l/m 0 min 0 min 5 W/m 18,8 km/h (3 Bft) 100,00 %
21.11.2016 03:10 12,2 C 12,8 C 10,6 C 83 % 0 lf 999,0 hPa 0,0 l/m 0 min 0 min 5 W/m 20,9 km/h (4 Bft) 97,83 %
21.11.2016 03:12 12,2 C 12,8 C 10,6 C 83 % 0 lf 999,1 hPa 0,0 l/m 0 min 0 min 5 W/m 16,7 km/h (3 Bft) 97,87 %
21.11.2016 03:14 12,2 C 12,8 C 10,6 C 83 % 0 lf 999,1 hPa 0,0 l/m 0 min 0 min 5 W/m 23,0 km/h (4 Bft) 95,74 %
21.11.2016 03:16 12,2 C 12,8 C 10,6 C 83 % 0 lf 999,1 hPa 0,0 l/m 0 min 0 min 5 W/m 23,0 km/h (4 Bft) 93,62 %
21.11.2016 03:18 12,2 C 12,8 C 10,6 C 83 % 0 lf 999,1 hPa 0,0 l/m 0 min 0 min 5 W/m 16,7 km/h (3 Bft) 97,87 %
21.11.2016 03:20 12,3 C 12,8 C 10,6 C 83 % 0 lf 999,1 hPa 0,0 l/m 0 min 0 min 5 W/m 14,6 km/h (3 Bft) 100,00 %
21.11.2016 03:22 12,3 C 12,8 C 10,6 C 83 % 0 lf 999,0 hPa 0,0 l/m 0 min 0 min 5 W/m 20,9 km/h (4 Bft) 100,00 %
21.11.2016 03:24 12,3 C 12,8 C 10,6 C 83 % 0 lf 999,1 hPa 0,0 l/m 0 min 0 min 5 W/m 23,0 km/h (4 Bft) 97,87 %
21.11.2016 03:26 12,3 C 12,8 C 10,6 C 83 % 0 lf 999,1 hPa 0,0 l/m 0 min 0 min 5 W/m 20,9 km/h (4 Bft) 100,00 %
21.11.2016 03:28 12,3 C 12,8 C 10,6 C 82 % 0 lf 999,0 hPa 0,0 l/m 0 min 0 min 5 W/m 14,6 km/h (3 Bft) 100,00 %
21.11.2016 03:30 12,3 C 12,8 C 10,6 C 82 % 0 lf 999,1 hPa 0,0 l/m 0 min 0 min 5 W/m 16,7 km/h (3 Bft) 100,00 %
21.11.2016 03:32 12,3 C 12,8 C 10,6 C 82 % 0 lf 999,0 hPa 0,0 l/m 0 min 0 min 5 W/m 20,9 km/h (4 Bft) 86,96 %
21.11.2016 03:34 12,4 C 12,8 C 10,6 C 82 % 0 lf 999,1 hPa 0,0 l/m 0 min 0 min 5 W/m 16,7 km/h (3 Bft) 95,74 %
21.11.2016 03:36 12,4 C 12,8 C 10,6 C 82 % 0 lf 999,0 hPa 0,0 l/m 0 min 0 min 5 W/m 20,9 km/h (4 Bft) 100,00 %
21.11.2016 03:38 12,4 C 12,8 C 10,6 C 82 % 0 lf 999,1 hPa 0,0 l/m 0 min 0 min 5 W/m 20,9 km/h (4 Bft) 97,87 %
21.11.2016 03:40 12,4 C 12,8 C 10,6 C 82 % 0 lf 999,1 hPa 0,0 l/m 0 min 0 min 5 W/m 20,9 km/h (4 Bft) 97,87 %
21.11.2016 03:42 12,4 C 12,8 C 10,6 C 82 % 0 lf 999,1 hPa 0,0 l/m 0 min 0 min 5 W/m 12,6 km/h (3 Bft) 100,00 %
21.11.2016 03:44 12,4 C 12,8 C 10,6 C 82 % 0 lf 999,1 hPa 0,0 l/m 0 min 0 min 5 W/m 18,8 km/h (3 Bft) 100,00 %
21.11.2016 03:46 12,4 C 12,8 C 10,6 C 82 % 0 lf 999,1 hPa 0,0 l/m 0 min 0 min 5 W/m 18,8 km/h (3 Bft) 95,74 %
21.11.2016 03:48 12,4 C 12,8 C 10,6 C 82 % 0 lf 999,1 hPa 0,0 l/m 0 min 2 min 5 W/m 18,8 km/h (3 Bft) 97,87 %
21.11.2016 03:50 12,4 C 12,8 C 10,6 C 82 % 0 lf 999,1 hPa 0,0 l/m 0 min 0 min 5 W/m 20,9 km/h (4 Bft) 95,74 %
21.11.2016 03:52 12,4 C 12,8 C 10,6 C 82 % 0 lf 999,1 hPa 0,0 l/m 0 min 2 min 5 W/m 14,6 km/h (3 Bft) 95,74 %
21.11.2016 03:54 12,4 C 12,2 C 10,6 C 82 % 0 lf 999,1 hPa 0,0 l/m 0 min 2 min 5 W/m 16,7 km/h (3 Bft) 97,87 %
21.11.2016 03:56 12,4 C 12,2 C 10,0 C 82 % 1 lf 999,1 hPa 0,0 l/m 0 min 2 min 5 W/m 16,7 km/h (3 Bft) 100,00 %
21.11.2016 03:58 12,4 C 12,2 C 10,0 C 82 % 0 lf 999,0 hPa 0,0 l/m 0 min 2 min 5 W/m 14,6 km/h (3 Bft) 91,49 %
21.11.2016 04:00 12,4 C 12,2 C 10,0 C 82 % 0 lf 999,0 hPa 0,0 l/m 0 min 2 min 5 W/m 12,6 km/h (3 Bft) 93,62 %
21.11.2016 04:05 12,4 C 12,2 C 10,0 C 82 % 0 lf 998,8 hPa 0,0 l/m 0 min 2 min 5 W/m 14,6 km/h (3 Bft) 95,24 %
21.11.2016 04:06 12,4 C 12,2 C 10,0 C 82 % 0 lf 998,8 hPa 0,0 l/m 0 min 1 min 5 W/m 14,6 km/h (3 Bft) 95,83 %
21.11.2016 04:08 12,4 C 12,2 C 10,0 C 83 % 0 lf 998,9 hPa 0,0 l/m 0 min 2 min 5 W/m 14,6 km/h (3 Bft) 95,65 %
21.11.2016 04:10 12,4 C 12,2 C 10,0 C 83 % 0 lf 998,8 hPa 0,0 l/m 0 min 2 min 5 W/m 16,7 km/h (3 Bft) 95,74 %
21.11.2016 04:12 12,4 C 12,2 C 10,0 C 83 % 0 lf 998,9 hPa 0,0 l/m 0 min 2 min 5 W/m 14,6 km/h (3 Bft) 95,74 %
21.11.2016 04:14 12,4 C 12,8 C 10,0 C 83 % 0 lf 998,8 hPa 0,0 l/m 0 min 2 min 5 W/m 31,4 km/h (5 Bft) 91,49 %
21.11.2016 04:16 12,4 C 12,8 C 10,0 C 83 % 0 lf 998,8 hPa 0,0 l/m 0 min 2 min 5 W/m 18,8 km/h (3 Bft) 93,62 %
21.11.2016 04:18 12,4 C 12,8 C 10,6 C 82 % 0 lf 998,8 hPa 0,0 l/m 0 min 0 min 5 W/m 18,8 km/h (3 Bft) 95,74 %
21.11.2016 04:20 12,4 C 12,8 C 10,6 C 82 % 0 lf 998,8 hPa 0,0 l/m 0 min 2 min 5 W/m 16,7 km/h (3 Bft) 93,48 %
21.11.2016 04:22 12,4 C 12,8 C 10,6 C 82 % 0 lf 998,7 hPa 0,0 l/m 0 min 0 min 5 W/m 16,7 km/h (3 Bft) 95,74 %
21.11.2016 04:24 12,4 C 12,8 C 10,6 C 82 % 0 lf 998,7 hPa 0,0 l/m 0 min 0 min 5 W/m 20,9 km/h (4 Bft) 97,87 %
21.11.2016 04:26 12,4 C 12,8 C 10,6 C 82 % 0 lf 998,8 hPa 0,0 l/m 0 min 0 min 5 W/m 33,5 km/h (5 Bft) 95,74 %
21.11.2016 04:28 12,5 C 12,8 C 10,6 C 82 % 0 lf 998,8 hPa 0,0 l/m 0 min 0 min 5 W/m 20,9 km/h (4 Bft) 91,49 %
21.11.2016 04:30 12,5 C 12,8 C 10,6 C 82 % 0 lf 998,8 hPa 0,0 l/m 0 min 0 min 5 W/m 18,8 km/h (3 Bft) 97,87 %
21.11.2016 04:32 12,5 C 12,8 C 10,6 C 82 % 0 lf 998,9 hPa 0,0 l/m 0 min 0 min 5 W/m 18,8 km/h (3 Bft) 97,83 %
21.11.2016 04:34 12,6 C 12,8 C 10,6 C 82 % 0 lf 998,8 hPa 0,0 l/m 0 min 0 min 5 W/m 18,8 km/h (3 Bft) 97,87 %
21.11.2016 04:36 12,6 C 12,8 C 10,6 C 82 % 0 lf 998,9 hPa 0,0 l/m 0 min 0 min 5 W/m 23,0 km/h (4 Bft) 91,49 %
21.11.2016 04:38 12,6 C 12,8 C 10,6 C 82 % 0 lf 999,0 hPa 0,0 l/m 0 min 0 min 5 W/m 18,8 km/h (3 Bft) 91,49 %
21.11.2016 04:40 12,6 C 12,8 C 10,6 C 81 % 0 lf 999,0 hPa 0,0 l/m 0 min 0 min 5 W/m 25,1 km/h (4 Bft) 91,49 %
21.11.2016 04:42 12,6 C 12,8 C 10,6 C 81 % 0 lf 999,0 hPa 0,0 l/m 0 min 0 min 5 W/m 18,8 km/h (3 Bft) 95,65 %
21.11.2016 04:44 12,6 C 12,8 C 10,6 C 81 % 0 lf 999,0 hPa 0,0 l/m 0 min 0 min 5 W/m 18,8 km/h (3 Bft) 89,36 %
21.11.2016 04:46 12,6 C 12,8 C 11,1 C 81 % 0 lf 999,0 hPa 0,0 l/m 0 min 0 min 5 W/m 27,2 km/h (4 Bft) 93,62 %
21.11.2016 04:48 12,7 C 13,3 C 11,1 C 81 % 0 lf 999,0 hPa 0,0 l/m 0 min 0 min 5 W/m 23,0 km/h (4 Bft) 97,87 %
21.11.2016 04:50 12,7 C 13,3 C 11,1 C 81 % 0 lf 999,0 hPa 0,0 l/m 0 min 0 min 5 W/m 27,2 km/h (4 Bft) 91,49 %
21.11.2016 04:52 12,7 C 13,3 C 11,1 C 81 % 0 lf 999,0 hPa 0,0 l/m 0 min 0 min 5 W/m 29,3 km/h (5 Bft) 93,62 %
21.11.2016 04:54 12,7 C 13,3 C 11,1 C 81 % 0 lf 998,9 hPa 0,0 l/m 0 min 0 min 5 W/m 27,2 km/h (4 Bft) 89,13 %
21.11.2016 04:56 12,8 C 13,3 C 11,1 C 81 % 0 lf 998,9 hPa 0,0 l/m 0 min 0 min 5 W/m 29,3 km/h (5 Bft) 87,23 %
21.11.2016 04:58 12,8 C 13,3 C 11,1 C 80 % 0 lf 998,8 hPa 0,0 l/m 0 min 0 min 5 W/m 29,3 km/h (5 Bft) 93,62 %
21.11.2016 05:00 12,9 C 13,3 C 11,1 C 80 % 0 lf 998,8 hPa 0,0 l/m 0 min 0 min 5 W/m 29,3 km/h (5 Bft) 91,49 %
21.11.2016 05:02 12,9 C 13,3 C 11,1 C 80 % 0 lf 998,8 hPa 0,0 l/m 0 min 0 min 5 W/m 18,8 km/h (3 Bft) 93,62 %
21.11.2016 05:04 12,9 C 13,3 C 11,1 C 80 % 0 lf 998,8 hPa 0,0 l/m 0 min 0 min 5 W/m 18,8 km/h (3 Bft) 93,62 %
21.11.2016 05:06 12,9 C 13,3 C 11,1 C 80 % 0 lf 998,9 hPa 0,0 l/m 0 min 0 min 5 W/m 16,7 km/h (3 Bft) 93,48 %
21.11.2016 05:08 13,0 C 13,3 C 11,1 C 80 % 0 lf 998,8 hPa 0,0 l/m 0 min 0 min 5 W/m 18,8 km/h (3 Bft) 93,62 %
21.11.2016 05:10 13,0 C 13,3 C 11,1 C 80 % 0 lf 998,7 hPa 0,0 l/m 0 min 0 min 5 W/m 25,1 km/h (4 Bft) 93,62 %
21.11.2016 05:12 13,0 C 13,3 C 11,1 C 80 % 0 lf 998,7 hPa 0,0 l/m 0 min 0 min 5 W/m 20,9 km/h (4 Bft) 91,49 %
21.11.2016 05:14 13,0 C 13,3 C 10,6 C 80 % 0 lf 998,7 hPa 0,0 l/m 0 min 0 min 5 W/m 25,1 km/h (4 Bft) 91,49 %
21.11.2016 05:16 13,1 C 13,3 C 11,1 C 80 % 0 lf 998,6 hPa 0,0 l/m 0 min 0 min 5 W/m 27,2 km/h (4 Bft) 93,62 %
21.11.2016 05:18 13,1 C 12,8 C 11,1 C 80 % 0 lf 998,7 hPa 0,0 l/m 0 min 0 min 5 W/m 25,1 km/h (4 Bft) 91,30 %
21.11.2016 05:20 13,1 C 13,3 C 10,6 C 80 % 0 lf 998,7 hPa 0,0 l/m 0 min 0 min 5 W/m 18,8 km/h (3 Bft) 93,62 %
21.11.2016 05:22 13,0 C 12,8 C 10,6 C 80 % 0 lf 998,7 hPa 0,0 l/m 0 min 0 min 5 W/m 18,8 km/h (3 Bft) 97,87 %
21.11.2016 05:24 13,1 C 12,8 C 11,1 C 80 % 0 lf 998,7 hPa 0,0 l/m 0 min 0 min 5 W/m 25,1 km/h (4 Bft) 93,62 %
21.11.2016 05:26 13,1 C 12,8 C 10,6 C 80 % 0 lf 998,6 hPa 0,0 l/m 0 min 0 min 5 W/m 14,6 km/h (3 Bft) 95,74 %
21.11.2016 05:28 13,0 C 13,3 C 11,1 C 80 % 0 lf 998,6 hPa 0,0 l/m 0 min 0 min 5 W/m 31,4 km/h (5 Bft) 95,74 %
21.11.2016 05:30 13,0 C 13,3 C 11,1 C 81 % 0 lf 998,7 hPa 0,0 l/m 0 min 0 min 5 W/m 20,9 km/h (4 Bft) 97,83 %
21.11.2016 05:32 13,1 C 12,8 C 11,1 C 81 % 0 lf 998,6 hPa 0,0 l/m 0 min 0 min 5 W/m 18,8 km/h (3 Bft) 97,87 %
21.11.2016 05:34 13,1 C 12,8 C 11,1 C 81 % 0 lf 998,7 hPa 0,0 l/m 0 min 0 min 5 W/m 14,6 km/h (3 Bft) 97,87 %
21.11.2016 05:36 13,0 C 12,8 C 11,1 C 81 % 0 lf 998,7 hPa 0,0 l/m 0 min 0 min 5 W/m 18,8 km/h (3 Bft) 89,36 %
21.11.2016 05:38 13,0 C 12,8 C 10,6 C 81 % 0 lf 998,7 hPa 0,0 l/m 0 min 0 min 5 W/m 16,7 km/h (3 Bft) 97,87 %
21.11.2016 05:40 13,0 C 12,8 C 11,1 C 82 % 0 lf 998,7 hPa 0,0 l/m 0 min 0 min 5 W/m 25,1 km/h (4 Bft) 97,87 %
21.11.2016 05:42 13,0 C 12,8 C 11,1 C 82 % 0 lf 998,7 hPa 0,0 l/m 0 min 0 min 5 W/m 20,9 km/h (4 Bft) 93,48 %
21.11.2016 05:44 13,0 C 13,3 C 11,1 C 82 % 0 lf 998,7 hPa 0,0 l/m 0 min 0 min 5 W/m 31,4 km/h (5 Bft) 97,87 %
21.11.2016 05:46 13,0 C 13,3 C 11,1 C 82 % 0 lf 998,7 hPa 0,0 l/m 0 min 0 min 5 W/m 29,3 km/h (5 Bft) 97,87 %
21.11.2016 05:48 13,0 C 13,3 C 11,1 C 82 % 0 lf 998,7 hPa 0,0 l/m 0 min 0 min 5 W/m 31,4 km/h (5 Bft) 95,74 %
21.11.2016 05:50 13,0 C 13,3 C 11,1 C 82 % 0 lf 998,6 hPa 0,0 l/m 0 min 0 min 5 W/m 23,0 km/h (4 Bft) 97,87 %
21.11.2016 05:52 13,0 C 13,3 C 11,1 C 82 % 0 lf 998,7 hPa 0,0 l/m 0 min 0 min 5 W/m 27,2 km/h (4 Bft) 97,83 %
21.11.2016 05:54 13,0 C 12,8 C 11,1 C 82 % 0 lf 998,7 hPa 0,0 l/m 0 min 0 min 5 W/m 18,8 km/h (3 Bft) 97,87 %
21.11.2016 05:56 13,0 C 12,8 C 11,1 C 83 % 0 lf 998,7 hPa 0,0 l/m 0 min 0 min 5 W/m 16,7 km/h (3 Bft) 95,74 %
21.11.2016 05:58 13,0 C 12,8 C 11,1 C 83 % 0 lf 998,7 hPa 0,0 l/m 0 min 0 min 5 W/m 14,6 km/h (3 Bft) 95,74 %
21.11.2016 06:00 13,0 C 12,8 C 11,1 C 83 % 0 lf 998,7 hPa 0,0 l/m 0 min 0 min 5 W/m 14,6 km/h (3 Bft) 97,87 %
21.11.2016 06:02 13,0 C 12,8 C 11,1 C 83 % 0 lf 998,7 hPa 0,0 l/m 0 min 0 min 5 W/m 14,6 km/h (3 Bft) 95,45 %
21.11.2016 06:06 12,9 C 12,8 C 10,6 C 83 % 0 lf 998,7 hPa 0,0 l/m 0 min 0 min 5 W/m 12,6 km/h (3 Bft) 94,62 %
21.11.2016 06:08 12,9 C 12,8 C 10,6 C 83 % 0 lf 998,7 hPa 0,0 l/m 0 min 0 min 5 W/m 16,7 km/h (3 Bft) 95,74 %
21.11.2016 06:10 12,9 C 12,8 C 10,6 C 83 % 0 lf 998,7 hPa 0,0 l/m 0 min 0 min 5 W/m 16,7 km/h (3 Bft) 97,87 %
21.11.2016 06:12 12,9 C 12,8 C 10,6 C 83 % 0 lf 998,7 hPa 0,0 l/m 0 min 0 min 5 W/m 20,9 km/h (4 Bft) 95,74 %
21.11.2016 06:14 12,9 C 12,8 C 10,6 C 83 % 0 lf 998,8 hPa 0,0 l/m 0 min 0 min 5 W/m 16,7 km/h (3 Bft) 97,87 %
21.11.2016 06:16 12,8 C 12,8 C 10,6 C 83 % 0 lf 998,8 hPa 0,0 l/m 0 min 0 min 5 W/m 18,8 km/h (3 Bft) 100,00 %
21.11.2016 06:18 12,8 C 12,8 C 10,6 C 83 % 0 lf 998,8 hPa 0,0 l/m 0 min 0 min 5 W/m 18,8 km/h (3 Bft) 91,30 %
21.11.2016 06:20 12,8 C 12,8 C 10,6 C 84 % 0 lf 998,8 hPa 0,0 l/m 0 min 0 min 5 W/m 16,7 km/h (3 Bft) 100,00 %
21.11.2016 06:22 12,8 C 12,8 C 10,6 C 84 % 0 lf 998,8 hPa 0,0 l/m 0 min 0 min 5 W/m 20,9 km/h (4 Bft) 100,00 %
21.11.2016 06:24 12,8 C 12,8 C 10,6 C 84 % 0 lf 998,8 hPa 0,0 l/m 0 min 0 min 5 W/m 20,9 km/h (4 Bft) 97,87 %
21.11.2016 06:26 12,7 C 12,8 C 10,6 C 84 % 0 lf 998,8 hPa 0,0 l/m 0 min 0 min 5 W/m 20,9 km/h (4 Bft) 100,00 %
21.11.2016 06:28 12,7 C 12,8 C 10,6 C 84 % 0 lf 998,8 hPa 0,0 l/m 0 min 0 min 5 W/m 20,9 km/h (4 Bft) 100,00 %
21.11.2016 06:30 12,7 C 12,8 C 10,6 C 84 % 0 lf 998,8 hPa 0,0 l/m 0 min 0 min 5 W/m 18,8 km/h (3 Bft) 95,74 %
21.11.2016 06:32 12,7 C 12,8 C 10,6 C 84 % 0 lf 998,8 hPa 0,0 l/m 0 min 0 min 5 W/m 16,7 km/h (3 Bft) 100,00 %
21.11.2016 06:34 12,7 C 12,8 C 10,6 C 84 % 0 lf 998,8 hPa 0,0 l/m 0 min 0 min 5 W/m 18,8 km/h (3 Bft) 97,87 %
21.11.2016 06:36 12,7 C 12,8 C 10,6 C 85 % 0 lf 998,8 hPa 0,0 l/m 0 min 0 min 5 W/m 20,9 km/h (4 Bft) 100,00 %
21.11.2016 06:38 12,7 C 12,8 C 10,6 C 85 % 0 lf 998,7 hPa 0,0 l/m 0 min 0 min 5 W/m 25,1 km/h (4 Bft) 100,00 %
21.11.2016 06:40 12,7 C 12,8 C 10,6 C 85 % 0 lf 998,8 hPa 0,0 l/m 0 min 0 min 5 W/m 16,7 km/h (3 Bft) 97,83 %
21.11.2016 06:42 12,7 C 12,8 C 10,6 C 85 % 0 lf 998,8 hPa 0,0 l/m 0 min 0 min 5 W/m 20,9 km/h (4 Bft) 100,00 %
21.11.2016 06:44 12,6 C 12,8 C 10,6 C 85 % 0 lf 998,8 hPa 0,0 l/m 0 min 0 min 5 W/m 18,8 km/h (3 Bft) 97,87 %
21.11.2016 06:46 12,7 C 12,8 C 10,6 C 85 % 0 lf 998,8 hPa 0,0 l/m 0 min 0 min 5 W/m 20,9 km/h (4 Bft) 93,62 %
21.11.2016 06:48 12,6 C 12,8 C 10,6 C 85 % 0 lf 998,8 hPa 0,0 l/m 0 min 0 min 5 W/m 23,0 km/h (4 Bft) 100,00 %
21.11.2016 06:50 12,6 C 12,8 C 10,6 C 85 % 0 lf 998,8 hPa 0,0 l/m 0 min 0 min 5 W/m 23,0 km/h (4 Bft) 100,00 %
21.11.2016 06:52 12,6 C 12,8 C 10,6 C 85 % 0 lf 998,8 hPa 0,0 l/m 0 min 0 min 5 W/m 16,7 km/h (3 Bft) 100,00 %
21.11.2016 06:54 12,6 C 12,8 C 10,6 C 85 % 0 lf 998,8 hPa 0,0 l/m 0 min 0 min 5 W/m 29,3 km/h (5 Bft) 100,00 %
21.11.2016 06:56 12,6 C 12,8 C 10,6 C 85 % 0 lf 998,7 hPa 0,0 l/m 0 min 0 min 5 W/m 20,9 km/h (4 Bft) 100,00 %
21.11.2016 06:58 12,6 C 12,8 C 10,6 C 85 % 0 lf 998,8 hPa 0,0 l/m 0 min 0 min 5 W/m 29,3 km/h (5 Bft) 95,74 %
21.11.2016 07:00 12,7 C 12,8 C 10,6 C 85 % 0 lf 998,7 hPa 0,0 l/m 0 min 0 min 5 W/m 18,8 km/h (3 Bft) 100,00 %
21.11.2016 07:02 12,7 C 12,8 C 11,1 C 86 % 0 lf 998,7 hPa 0,0 l/m 0 min 0 min 5 W/m 25,1 km/h (4 Bft) 100,00 %
21.11.2016 07:04 12,7 C 12,8 C 10,6 C 86 % 0 lf 998,6 hPa 0,0 l/m 0 min 0 min 5 W/m 18,8 km/h (3 Bft) 100,00 %
21.11.2016 07:06 12,7 C 12,8 C 11,1 C 86 % 0 lf 998,7 hPa 0,0 l/m 0 min 0 min 5 W/m 20,9 km/h (4 Bft) 100,00 %
21.11.2016 07:08 12,7 C 12,8 C 10,6 C 86 % 0 lf 998,7 hPa 0,0 l/m 0 min 0 min 5 W/m 23,0 km/h (4 Bft) 97,87 %
21.11.2016 07:10 12,7 C 12,8 C 10,6 C 86 % 0 lf 998,6 hPa 0,0 l/m 0 min 0 min 5 W/m 23,0 km/h (4 Bft) 97,87 %
21.11.2016 07:12 12,7 C 12,8 C 10,6 C 86 % 0 lf 998,7 hPa 0,0 l/m 0 min 0 min 5 W/m 18,8 km/h (3 Bft) 100,00 %
21.11.2016 07:14 12,7 C 12,8 C 10,6 C 86 % 0 lf 998,7 hPa 0,0 l/m 0 min 0 min 5 W/m 23,0 km/h (4 Bft) 97,87 %
21.11.2016 07:16 12,7 C 12,8 C 10,6 C 86 % 0 lf 998,7 hPa 0,0 l/m 0 min 0 min 5 W/m 20,9 km/h (4 Bft) 93,48 %
21.11.2016 07:18 12,7 C 12,8 C 11,1 C 86 % 0 lf 998,7 hPa 0,0 l/m 0 min 0 min 5 W/m 27,2 km/h (4 Bft) 97,87 %
21.11.2016 07:20 12,7 C 12,8 C 10,6 C 86 % 0 lf 998,6 hPa 0,0 l/m 0 min 0 min 5 W/m 18,8 km/h (3 Bft) 97,87 %
21.11.2016 07:22 12,7 C 12,8 C 11,1 C 86 % 0 lf 998,6 hPa 0,0 l/m 0 min 0 min 5 W/m 20,9 km/h (4 Bft) 100,00 %
21.11.2016 07:24 12,7 C 12,8 C 11,1 C 86 % 0 lf 998,6 hPa 0,0 l/m 0 min 0 min 5 W/m 20,9 km/h (4 Bft) 97,87 %
21.11.2016 07:26 12,7 C 12,8 C 11,1 C 86 % 0 lf 998,6 hPa 0,0 l/m 0 min 0 min 5 W/m 20,9 km/h (4 Bft) 93,62 %
21.11.2016 07:28 12,7 C 12,8 C 11,1 C 86 % 0 lf 998,7 hPa 0,0 l/m 0 min 0 min 5 W/m 20,9 km/h (4 Bft) 95,65 %
21.11.2016 07:30 12,7 C 12,8 C 11,1 C 86 % 0 lf 998,6 hPa 0,0 l/m 0 min 0 min 5 W/m 16,7 km/h (3 Bft) 97,87 %
21.11.2016 07:32 12,7 C 12,8 C 11,1 C 86 % 0 lf 998,6 hPa 0,0 l/m 0 min 0 min 5 W/m 20,9 km/h (4 Bft) 95,74 %
21.11.2016 07:34 12,7 C 12,8 C 11,1 C 86 % 0 lf 998,5 hPa 0,0 l/m 0 min 0 min 5 W/m 18,8 km/h (3 Bft) 93,62 %
21.11.2016 07:36 12,7 C 12,8 C 11,1 C 86 % 0 lf 998,6 hPa 0,0 l/m 0 min 0 min 5 W/m 16,7 km/h (3 Bft) 93,62 %
21.11.2016 07:38 12,7 C 12,8 C 11,1 C 86 % 0 lf 998,6 hPa 0,0 l/m 0 min 0 min 5 W/m 14,6 km/h (3 Bft) 97,83 %
21.11.2016 07:40 12,7 C 12,8 C 10,6 C 86 % 0 lf 998,5 hPa 0,0 l/m 0 min 0 min 5 W/m 16,7 km/h (3 Bft) 97,87 %
21.11.2016 07:42 12,7 C 12,8 C 11,1 C 86 % 0 lf 998,6 hPa 0,0 l/m 0 min 0 min 5 W/m 18,8 km/h (3 Bft) 95,74 %
21.11.2016 07:44 12,7 C 12,8 C 11,1 C 87 % 0 lf 998,6 hPa 0,0 l/m 0 min 0 min 5 W/m 23,0 km/h (4 Bft) 95,74 %
21.11.2016 07:46 12,7 C 12,8 C 11,1 C 87 % 0 lf 998,7 hPa 0,0 l/m 0 min 0 min 5 W/m 20,9 km/h (4 Bft) 89,36 %
21.11.2016 07:48 12,7 C 12,8 C 11,1 C 87 % 0 lf 998,6 hPa 0,0 l/m 0 min 0 min 5 W/m 25,1 km/h (4 Bft) 91,49 %
21.11.2016 07:50 12,8 C 12,8 C 11,1 C 87 % 0 lf 998,7 hPa 0,0 l/m 0 min 0 min 5 W/m 20,9 km/h (4 Bft) 89,13 %
21.11.2016 07:52 12,8 C 12,8 C 11,1 C 87 % 0 lf 998,7 hPa 0,0 l/m 0 min 0 min 5 W/m 20,9 km/h (4 Bft) 91,49 %
21.11.2016 07:54 12,8 C 12,8 C 11,1 C 87 % 0 lf 998,7 hPa 0,0 l/m 0 min 0 min 5 W/m 16,7 km/h (3 Bft) 89,36 %
21.11.2016 07:56 12,8 C 12,8 C 11,1 C 87 % 0 lf 998,7 hPa 0,0 l/m 0 min 0 min 5 W/m 16,7 km/h (3 Bft) 91,49 %
21.11.2016 07:58 12,8 C 12,8 C 11,1 C 87 % 0 lf 998,7 hPa 0,0 l/m 0 min 0 min 5 W/m 16,7 km/h (3 Bft) 91,49 %
21.11.2016 08:00 12,8 C 12,8 C 11,1 C 87 % 0 lf 998,7 hPa 0,0 l/m 0 min 0 min 5 W/m 20,9 km/h (4 Bft) 87,23 %
21.11.2016 08:02 12,8 C 12,8 C 11,1 C 87 % 0 lf 998,7 hPa 0,0 l/m 0 min 0 min 5 W/m 20,9 km/h (4 Bft) 89,13 %
21.11.2016 08:04 12,8 C 12,8 C 11,1 C 87 % 0 lf 998,7 hPa 0,0 l/m 0 min 0 min 5 W/m 23,0 km/h (4 Bft) 91,49 %
21.11.2016 08:06 12,8 C 12,8 C 11,1 C 87 % 0 lf 998,7 hPa 0,0 l/m 0 min 0 min 5 W/m 18,8 km/h (3 Bft) 91,49 %
21.11.2016 08:08 12,9 C 12,8 C 11,1 C 87 % 0 lf 998,8 hPa 0,0 l/m 0 min 0 min 6 W/m 25,1 km/h (4 Bft) 91,49 %
21.11.2016 08:10 12,9 C 12,8 C 11,1 C 87 % 0 lf 998,8 hPa 0,0 l/m 0 min 0 min 7 W/m 25,1 km/h (4 Bft) 87,23 %
21.11.2016 08:12 12,9 C 13,3 C 11,1 C 87 % 0 lf 998,8 hPa 0,0 l/m 0 min 0 min 7 W/m 25,1 km/h (4 Bft) 89,36 %
21.11.2016 08:14 12,9 C 13,3 C 11,1 C 87 % 0 lf 998,8 hPa 0,0 l/m 0 min 0 min 7 W/m 20,9 km/h (4 Bft) 93,48 %
21.11.2016 08:16 12,9 C 13,3 C 11,1 C 87 % 0 lf 998,8 hPa 0,0 l/m 0 min 0 min 7 W/m 20,9 km/h (4 Bft) 95,74 %
21.11.2016 08:18 12,9 C 13,3 C 11,1 C 87 % 0 lf 998,7 hPa 0,0 l/m 0 min 0 min 7 W/m 23,0 km/h (4 Bft) 91,49 %
21.11.2016 08:20 12,9 C 12,8 C 11,1 C 87 % 0 lf 998,7 hPa 0,0 l/m 0 min 0 min 7 W/m 16,7 km/h (3 Bft) 93,62 %
21.11.2016 08:22 12,9 C 13,3 C 11,1 C 87 % 0 lf 998,7 hPa 0,0 l/m 0 min 0 min 8 W/m 25,1 km/h (4 Bft) 93,62 %
21.11.2016 08:24 12,9 C 13,3 C 11,1 C 87 % 0 lf 998,7 hPa 0,0 l/m 0 min 0 min 11 W/m 25,1 km/h (4 Bft) 93,62 %
21.11.2016 08:26 12,9 C 13,3 C 11,7 C 87 % 0 lf 998,7 hPa 0,0 l/m 0 min 0 min 11 W/m 27,2 km/h (4 Bft) 91,30 %
21.11.2016 08:28 12,9 C 13,3 C 11,7 C 87 % 0 lf 998,7 hPa 0,0 l/m 0 min 0 min 12 W/m 20,9 km/h (4 Bft) 95,74 %
21.11.2016 08:30 13,0 C 13,3 C 11,7 C 87 % 0 lf 998,7 hPa 0,0 l/m 0 min 0 min 12 W/m 25,1 km/h (4 Bft) 91,49 %
21.11.2016 08:32 13,0 C 13,3 C 11,7 C 87 % 0 lf 998,8 hPa 0,0 l/m 0 min 0 min 12 W/m 14,6 km/h (3 Bft) 95,74 %
21.11.2016 08:34 13,0 C 13,3 C 11,7 C 87 % 0 lf 998,8 hPa 0,0 l/m 0 min 0 min 12 W/m 23,0 km/h (4 Bft) 97,87 %
21.11.2016 08:36 13,0 C 13,3 C 11,7 C 87 % 0 lf 998,8 hPa 0,0 l/m 0 min 0 min 12 W/m 14,6 km/h (3 Bft) 97,87 %
21.11.2016 08:38 13,0 C 13,3 C 11,7 C 87 % 0 lf 998,8 hPa 0,0 l/m 0 min 0 min 13 W/m 27,2 km/h (4 Bft) 97,83 %
21.11.2016 08:40 13,1 C 13,3 C 11,7 C 87 % 0 lf 998,8 hPa 0,0 l/m 0 min 0 min 14 W/m 27,2 km/h (4 Bft) 95,74 %
21.11.2016 08:42 13,1 C 13,3 C 11,7 C 87 % 0 lf 998,8 hPa 0,0 l/m 0 min 0 min 14 W/m 29,3 km/h (5 Bft) 97,87 %
21.11.2016 08:44 13,1 C 13,3 C 11,7 C 87 % 0 lf 998,8 hPa 0,0 l/m 0 min 0 min 14 W/m 29,3 km/h (5 Bft) 95,74 %
21.11.2016 08:46 13,1 C 13,3 C 11,7 C 86 % 0 lf 998,8 hPa 0,0 l/m 0 min 0 min 14 W/m 33,5 km/h (5 Bft) 95,74 %
21.11.2016 08:48 13,1 C 13,3 C 11,7 C 86 % 0 lf 998,8 hPa 0,0 l/m 0 min 0 min 14 W/m 27,2 km/h (4 Bft) 97,87 %
21.11.2016 08:50 13,2 C 13,3 C 11,7 C 86 % 0 lf 998,9 hPa 0,0 l/m 0 min 0 min 14 W/m 27,2 km/h (4 Bft) 97,83 %
21.11.2016 08:52 13,2 C 13,3 C 11,7 C 86 % 0 lf 998,9 hPa 0,0 l/m 0 min 0 min 14 W/m 29,3 km/h (5 Bft) 97,87 %
21.11.2016 08:54 13,2 C 13,3 C 11,7 C 86 % 0 lf 998,9 hPa 0,0 l/m 0 min 0 min 16 W/m 23,0 km/h (4 Bft) 97,87 %
21.11.2016 08:56 13,2 C 13,3 C 11,7 C 86 % 0 lf 998,9 hPa 0,0 l/m 0 min 0 min 16 W/m 23,0 km/h (4 Bft) 100,00 %
21.11.2016 08:58 13,2 C 13,3 C 11,7 C 86 % 0 lf 999,0 hPa 0,0 l/m 0 min 0 min 16 W/m 39,7 km/h (6 Bft) 95,74 %
21.11.2016 09:00 13,2 C 13,3 C 11,7 C 86 % 0 lf 998,9 hPa 0,0 l/m 0 min 0 min 17 W/m 29,3 km/h (5 Bft) 97,87 %
21.11.2016 09:02 13,3 C 13,9 C 11,7 C 86 % 0 lf 998,8 hPa 0,0 l/m 0 min 0 min 19 W/m 25,1 km/h (4 Bft) 97,83 %
21.11.2016 09:04 13,3 C 13,9 C 11,7 C 85 % 0 lf 999,0 hPa 0,0 l/m 0 min 2 min 20 W/m 27,2 km/h (4 Bft) 97,87 %
21.11.2016 09:06 13,3 C 13,9 C 11,7 C 85 % 0 lf 999,0 hPa 0,0 l/m 0 min 0 min 20 W/m 27,2 km/h (4 Bft) 100,00 %
21.11.2016 09:08 13,3 C 13,9 C 11,7 C 85 % 0 lf 999,0 hPa 0,0 l/m 0 min 0 min 19 W/m 25,1 km/h (4 Bft) 97,87 %
21.11.2016 09:10 13,3 C 13,9 C 11,7 C 85 % 0 lf 999,0 hPa 0,0 l/m 0 min 0 min 18 W/m 43,9 km/h (6 Bft) 100,00 %
21.11.2016 09:12 13,3 C 13,9 C 11,7 C 85 % 0 lf 999,0 hPa 0,0 l/m 0 min 0 min 18 W/m 39,7 km/h (6 Bft) 100,00 %
21.11.2016 09:14 13,4 C 13,9 C 11,7 C 85 % 0 lf 999,0 hPa 0,0 l/m 0 min 2 min 20 W/m 31,4 km/h (5 Bft) 97,87 %
21.11.2016 09:16 13,4 C 13,3 C 11,7 C 85 % 0 lf 999,1 hPa 0,0 l/m 0 min 2 min 23 W/m 23,0 km/h (4 Bft) 93,62 %
21.11.2016 09:18 13,4 C 13,3 C 11,1 C 85 % 0 lf 999,1 hPa 0,0 l/m 0 min 2 min 21 W/m 25,1 km/h (4 Bft) 93,62 %
21.11.2016 09:20 13,4 C 13,3 C 11,1 C 85 % 0 lf 999,0 hPa 0,0 l/m 0 min 2 min 21 W/m 25,1 km/h (4 Bft) 95,74 %
21.11.2016 09:22 13,4 C 13,3 C 11,1 C 85 % 0 lf 999,1 hPa 0,0 l/m 0 min 2 min 19 W/m 43,9 km/h (6 Bft) 97,87 %
21.11.2016 09:24 13,4 C 13,3 C 11,1 C 85 % 0 lf 999,1 hPa 0,0 l/m 0 min 2 min 22 W/m 31,4 km/h (5 Bft) 97,83 %
21.11.2016 09:26 13,4 C 12,8 C 11,1 C 85 % 0 lf 999,1 hPa 0,0 l/m 0 min 2 min 24 W/m 35,6 km/h (5 Bft) 95,74 %
21.11.2016 09:28 13,4 C 12,2 C 10,6 C 85 % 0 lf 999,0 hPa 0,0 l/m 0 min 2 min 25 W/m 25,1 km/h (4 Bft) 100,00 %
21.11.2016 09:30 13,4 C 11,7 C 10,6 C 85 % 0 lf 999,1 hPa 0,0 l/m 0 min 2 min 27 W/m 29,3 km/h (5 Bft) 95,74 %
21.11.2016 09:32 13,3 C 11,7 C 10,6 C 85 % 0 lf 999,1 hPa 0,0 l/m 0 min 2 min 29 W/m 33,5 km/h (5 Bft) 93,62 %
21.11.2016 09:34 13,3 C 11,7 C 10,6 C 86 % 0 lf 999,2 hPa 0,0 l/m 0 min 2 min 30 W/m 33,5 km/h (5 Bft) 97,87 %
21.11.2016 09:36 13,3 C 11,7 C 10,6 C 86 % 0 lf 999,1 hPa 0,0 l/m 0 min 2 min 29 W/m 23,0 km/h (4 Bft) 100,00 %
21.11.2016 09:38 13,2 C 11,1 C 10,0 C 86 % 0 lf 999,2 hPa 0,0 l/m 0 min 2 min 26 W/m 31,4 km/h (5 Bft) 100,00 %
21.11.2016 09:40 13,2 C 11,7 C 10,0 C 86 % 0 lf 999,2 hPa 0,0 l/m 0 min 2 min 26 W/m 33,5 km/h (5 Bft) 97,87 %
21.11.2016 09:42 13,2 C 11,7 C 10,0 C 86 % 0 lf 999,2 hPa 0,0 l/m 0 min 2 min 26 W/m 37,7 km/h (5 Bft) 97,87 %
21.11.2016 09:44 13,1 C 11,7 C 10,0 C 86 % 2 lf 999,2 hPa 0,0 l/m 0 min 2 min 25 W/m 27,2 km/h (4 Bft) 97,87 %
21.11.2016 09:46 13,1 C 11,7 C 10,0 C 86 % 1 lf 999,2 hPa 0,0 l/m 0 min 2 min 25 W/m 23,0 km/h (4 Bft) 97,87 %
21.11.2016 09:48 13,1 C 11,7 C 10,0 C 87 % 1 lf 999,3 hPa 0,0 l/m 0 min 2 min 25 W/m 27,2 km/h (4 Bft) 97,83 %
21.11.2016 09:50 13,0 C 11,1 C 10,0 C 87 % 0 lf 999,2 hPa 0,2 l/m 0 min 2 min 27 W/m 25,1 km/h (4 Bft) 89,36 %
21.11.2016 09:52 13,0 C 11,1 C 10,0 C 87 % 0 lf 999,3 hPa 0,0 l/m 0 min 2 min 28 W/m 25,1 km/h (4 Bft) 100,00 %
21.11.2016 09:54 12,9 C 11,1 C 10,0 C 87 % 0 lf 999,3 hPa 0,0 l/m 0 min 2 min 29 W/m 37,7 km/h (5 Bft) 97,87 %
21.11.2016 09:56 12,9 C 11,1 C 10,0 C 87 % 0 lf 999,3 hPa 0,0 l/m 0 min 2 min 30 W/m 31,4 km/h (5 Bft) 95,74 %
21.11.2016 09:58 12,9 C 11,1 C 10,0 C 87 % 0 lf 999,3 hPa 0,0 l/m 0 min 2 min 31 W/m 29,3 km/h (5 Bft) 100,00 %
21.11.2016 10:00 12,8 C 11,1 C 10,0 C 88 % 1 lf 999,3 hPa 0,0 l/m 0 min 2 min 32 W/m 23,0 km/h (4 Bft) 93,48 %
21.11.2016 10:02 12,8 C 11,1 C 10,0 C 88 % 0 lf 999,4 hPa 0,0 l/m 0 min 2 min 39 W/m 29,3 km/h (5 Bft) 97,87 %
21.11.2016 10:04 12,8 C 11,1 C 10,0 C 88 % 0 lf 999,3 hPa 0,0 l/m 0 min 2 min 44 W/m 31,4 km/h (5 Bft) 97,87 %
21.11.2016 10:06 12,7 C 11,1 C 10,0 C 88 % 1 lf 999,3 hPa 0,0 l/m 0 min 2 min 42 W/m 25,1 km/h (4 Bft) 95,74 %
21.11.2016 10:08 12,7 C 11,1 C 10,0 C 88 % 0 lf 999,3 hPa 0,0 l/m 0 min 2 min 37 W/m 27,2 km/h (4 Bft) 97,87 %
21.11.2016 10:10 12,7 C 11,1 C 10,0 C 88 % 0 lf 999,3 hPa 0,0 l/m 0 min 2 min 34 W/m 37,7 km/h (5 Bft) 100,00 %
21.11.2016 10:12 12,7 C 11,1 C 10,0 C 88 % 1 lf 999,3 hPa 0,0 l/m 0 min 2 min 30 W/m 37,7 km/h (5 Bft) 100,00 %
21.11.2016 10:14 12,7 C 11,1 C 10,0 C 88 % 1 lf 999,3 hPa 0,0 l/m 0 min 2 min 25 W/m 35,6 km/h (5 Bft) 100,00 %
21.11.2016 10:16 12,7 C 11,1 C 10,0 C 88 % 0 lf 999,3 hPa 0,0 l/m 0 min 2 min 25 W/m 23,0 km/h (4 Bft) 100,00 %
21.11.2016 10:18 12,7 C 11,1 C 10,0 C 88 % 0 lf 999,3 hPa 0,0 l/m 0 min 2 min 27 W/m 27,2 km/h (4 Bft) 95,74 %
21.11.2016 10:20 12,6 C 11,1 C 10,0 C 88 % 0 lf 999,4 hPa 0,0 l/m 0 min 2 min 28 W/m 27,2 km/h (4 Bft) 97,87 %
21.11.2016 10:22 12,6 C 11,1 C 10,0 C 88 % 0 lf 999,3 hPa 0,2 l/m 0 min 2 min 28 W/m 29,3 km/h (5 Bft) 95,65 %
21.11.2016 10:24 12,6 C 11,1 C 10,0 C 88 % 0 lf 999,3 hPa 0,0 l/m 0 min 2 min 31 W/m 20,9 km/h (4 Bft) 95,74 %
21.11.2016 10:26 12,6 C 11,1 C 10,0 C 88 % 0 lf 999,4 hPa 0,0 l/m 0 min 2 min 42 W/m 29,3 km/h (5 Bft) 95,74 %
21.11.2016 10:28 12,6 C 11,1 C 10,0 C 88 % 0 lf 999,3 hPa 0,0 l/m 0 min 2 min 48 W/m 29,3 km/h (5 Bft) 95,74 %
21.11.2016 10:30 12,6 C 11,1 C 10,0 C 88 % 0 lf 999,3 hPa 0,0 l/m 0 min 2 min 51 W/m 29,3 km/h (5 Bft) 95,74 %
21.11.2016 10:32 12,6 C 11,1 C 10,0 C 88 % 0 lf 999,4 hPa 0,0 l/m 0 min 2 min 50 W/m 29,3 km/h (5 Bft) 95,74 %
21.11.2016 10:34 12,6 C 11,1 C 10,0 C 88 % 0 lf 999,4 hPa 0,0 l/m 0 min 2 min 50 W/m 39,7 km/h (6 Bft) 95,65 %
21.11.2016 10:36 12,6 C 11,1 C 10,0 C 88 % 0 lf 999,5 hPa 0,0 l/m 0 min 2 min 53 W/m 25,1 km/h (4 Bft) 95,74 %
21.11.2016 10:38 12,6 C 11,1 C 10,0 C 88 % 0 lf 999,4 hPa 0,0 l/m 0 min 2 min 53 W/m 33,5 km/h (5 Bft) 95,74 %
21.11.2016 10:40 12,6 C 11,1 C 10,0 C 88 % 0 lf 999,4 hPa 0,0 l/m 0 min 2 min 47 W/m 29,3 km/h (5 Bft) 93,62 %
21.11.2016 10:42 12,6 C 11,1 C 10,0 C 88 % 0 lf 999,4 hPa 0,0 l/m 0 min 2 min 43 W/m 41,8 km/h (6 Bft) 91,49 %
21.11.2016 10:44 12,6 C 11,1 C 10,0 C 88 % 0 lf 999,4 hPa 0,0 l/m 0 min 2 min 43 W/m 23,0 km/h (4 Bft) 91,49 %
21.11.2016 10:46 12,6 C 11,1 C 10,0 C 88 % 0 lf 999,4 hPa 0,0 l/m 0 min 2 min 39 W/m 35,6 km/h (5 Bft) 93,48 %
21.11.2016 10:48 12,6 C 11,1 C 10,0 C 88 % 0 lf 999,5 hPa 0,0 l/m 0 min 2 min 34 W/m 29,3 km/h (5 Bft) 91,49 %
21.11.2016 10:50 12,6 C 11,1 C 10,0 C 87 % 0 lf 999,4 hPa 0,0 l/m 0 min 2 min 28 W/m 31,4 km/h (5 Bft) 95,74 %
21.11.2016 10:52 12,6 C 11,1 C 10,0 C 87 % 0 lf 999,5 hPa 0,0 l/m 0 min 2 min 25 W/m 29,3 km/h (5 Bft) 93,62 %
21.11.2016 10:54 12,6 C 11,7 C 10,0 C 87 % 0 lf 999,5 hPa 0,0 l/m 0 min 2 min 23 W/m 31,4 km/h (5 Bft) 93,62 %
21.11.2016 10:56 12,6 C 11,7 C 10,0 C 87 % 0 lf 999,5 hPa 0,0 l/m 0 min 2 min 22 W/m 33,5 km/h (5 Bft) 95,74 %
21.11.2016 10:58 12,6 C 11,7 C 10,0 C 87 % 0 lf 999,5 hPa 0,0 l/m 0 min 2 min 20 W/m 35,6 km/h (5 Bft) 84,78 %
21.11.2016 11:00 12,7 C 11,7 C 10,0 C 87 % 0 lf 999,4 hPa 0,0 l/m 0 min 2 min 21 W/m 29,3 km/h (5 Bft) 95,74 %
21.11.2016 11:02 12,7 C 11,7 C 10,0 C 87 % 0 lf 999,4 hPa 0,0 l/m 0 min 2 min 21 W/m 27,2 km/h (4 Bft) 93,62 %
21.11.2016 11:04 12,7 C 11,7 C 10,0 C 87 % 0 lf 999,4 hPa 0,0 l/m 0 min 2 min 22 W/m 29,3 km/h (5 Bft) 95,74 %
21.11.2016 11:06 12,7 C 11,7 C 10,0 C 87 % 0 lf 999,4 hPa 0,0 l/m 0 min 2 min 24 W/m 29,3 km/h (5 Bft) 89,36 %
21.11.2016 11:08 12,7 C 11,7 C 10,0 C 86 % 0 lf 999,4 hPa 0,0 l/m 0 min 2 min 23 W/m 31,4 km/h (5 Bft) 95,74 %
21.11.2016 11:10 12,7 C 11,7 C 10,0 C 86 % 0 lf 999,4 hPa 0,0 l/m 0 min 2 min 25 W/m 35,6 km/h (5 Bft) 95,65 %
21.11.2016 11:12 12,8 C 11,7 C 10,0 C 86 % 0 lf 999,3 hPa 0,0 l/m 0 min 2 min 27 W/m 20,9 km/h (4 Bft) 97,87 %
21.11.2016 11:14 12,8 C 11,7 C 10,0 C 86 % 0 lf 999,3 hPa 0,0 l/m 0 min 2 min 31 W/m 20,9 km/h (4 Bft) 97,87 %
21.11.2016 11:16 12,8 C 11,7 C 10,0 C 86 % 0 lf 999,3 hPa 0,0 l/m 0 min 2 min 33 W/m 16,7 km/h (3 Bft) 95,74 %
21.11.2016 11:18 12,8 C 11,7 C 10,0 C 86 % 0 lf 999,3 hPa 0,0 l/m 0 min 2 min 36 W/m 23,0 km/h (4 Bft) 95,74 %
21.11.2016 11:20 12,8 C 12,2 C 10,0 C 87 % 0 lf 999,3 hPa 0,0 l/m 0 min 2 min 38 W/m 20,9 km/h (4 Bft) 100,00 %
21.11.2016 11:22 12,8 C 11,7 C 10,0 C 87 % 0 lf 999,3 hPa 0,0 l/m 0 min 0 min 42 W/m 29,3 km/h (5 Bft) 100,00 %
21.11.2016 11:24 12,8 C 11,7 C 10,0 C 87 % 0 lf 999,3 hPa 0,0 l/m 0 min 2 min 40 W/m 31,4 km/h (5 Bft) 95,74 %
21.11.2016 11:26 12,8 C 12,2 C 10,0 C 87 % 0 lf 999,3 hPa 0,0 l/m 0 min 2 min 41 W/m 29,3 km/h (5 Bft) 95,74 %
21.11.2016 11:28 12,8 C 12,8 C 10,0 C 87 % 0 lf 999,3 hPa 0,0 l/m 0 min 2 min 43 W/m 35,6 km/h (5 Bft) 93,62 %
21.11.2016 11:30 12,8 C 12,8 C 10,0 C 87 % 0 lf 999,2 hPa 0,0 l/m 0 min 2 min 45 W/m 33,5 km/h (5 Bft) 95,74 %
21.11.2016 11:32 12,8 C 12,8 C 10,0 C 87 % 0 lf 999,2 hPa 0,0 l/m 0 min 2 min 46 W/m 25,1 km/h (4 Bft) 97,87 %
21.11.2016 11:34 12,9 C 13,3 C 10,0 C 87 % 0 lf 999,1 hPa 0,0 l/m 0 min 0 min 40 W/m 31,4 km/h (5 Bft) 97,83 %
21.11.2016 11:36 12,9 C 13,3 C 10,0 C 87 % 0 lf 999,0 hPa 0,0 l/m 0 min 0 min 34 W/m 27,2 km/h (4 Bft) 97,87 %
21.11.2016 11:38 12,9 C 13,3 C 10,0 C 87 % 0 lf 999,1 hPa 0,0 l/m 0 min 0 min 33 W/m 33,5 km/h (5 Bft) 95,74 %
21.11.2016 11:40 12,9 C 13,3 C 10,6 C 87 % 0 lf 999,1 hPa 0,0 l/m 0 min 0 min 34 W/m 27,2 km/h (4 Bft) 95,74 %
21.11.2016 11:42 12,9 C 13,3 C 10,6 C 87 % 0 lf 999,1 hPa 0,0 l/m 0 min 0 min 37 W/m 37,7 km/h (5 Bft) 97,87 %
21.11.2016 11:44 12,9 C 13,3 C 10,6 C 87 % 0 lf 999,2 hPa 0,0 l/m 0 min 0 min 39 W/m 35,6 km/h (5 Bft) 95,65 %
21.11.2016 11:46 12,9 C 13,3 C 10,6 C 87 % 0 lf 999,1 hPa 0,0 l/m 0 min 0 min 39 W/m 43,9 km/h (6 Bft) 95,74 %
21.11.2016 11:48 12,9 C 13,3 C 11,1 C 87 % 0 lf 999,1 hPa 0,0 l/m 0 min 2 min 39 W/m 35,6 km/h (5 Bft) 93,62 %
21.11.2016 11:50 13,0 C 13,3 C 11,7 C 87 % 0 lf 999,1 hPa 0,0 l/m 0 min 2 min 42 W/m 37,7 km/h (5 Bft) 91,49 %
21.11.2016 11:52 13,0 C 13,3 C 11,1 C 87 % 0 lf 999,1 hPa 0,0 l/m 0 min 2 min 46 W/m 33,5 km/h (5 Bft) 95,74 %
21.11.2016 11:54 13,1 C 13,3 C 11,1 C 87 % 0 lf 999,1 hPa 0,0 l/m 0 min 0 min 46 W/m 37,7 km/h (5 Bft) 91,49 %
21.11.2016 11:56 13,1 C 13,3 C 11,1 C 87 % 0 lf 999,0 hPa 0,0 l/m 0 min 2 min 42 W/m 37,7 km/h (5 Bft) 95,65 %
21.11.2016 11:58 13,1 C 12,8 C 11,1 C 86 % 0 lf 999,0 hPa 0,0 l/m 0 min 2 min 36 W/m 35,6 km/h (5 Bft) 97,87 %
21.11.2016 12:00 13,1 C 12,8 C 11,1 C 86 % 0 lf 998,9 hPa 0,0 l/m 0 min 2 min 36 W/m 33,5 km/h (5 Bft) 97,87 %
21.11.2016 12:02 13,1 C 12,8 C 10,6 C 86 % 0 lf 999,0 hPa 0,0 l/m 0 min 2 min 36 W/m 37,7 km/h (5 Bft) 91,49 %
21.11.2016 12:06 13,2 C 12,2 C 10,6 C 86 % 3 lf 998,8 hPa 0,0 l/m 0 min 2 min 37 W/m 29,3 km/h (5 Bft) 97,87 %
21.11.2016 12:08 13,2 C 11,7 C 10,6 C 86 % 2 lf 999,0 hPa 0,0 l/m 0 min 2 min 39 W/m 20,9 km/h (4 Bft) 97,83 %
21.11.2016 12:10 13,1 C 11,7 C 10,6 C 86 % 1 lf 998,8 hPa 0,0 l/m 0 min 2 min 43 W/m 39,7 km/h (6 Bft) 93,62 %
21.11.2016 12:12 13,1 C 11,7 C 10,6 C 86 % 1 lf 998,8 hPa 0,0 l/m 0 min 2 min 46 W/m 33,5 km/h (5 Bft) 97,87 %
21.11.2016 12:14 13,1 C 11,7 C 10,6 C 86 % 1 lf 998,9 hPa 0,0 l/m 0 min 2 min 51 W/m 35,6 km/h (5 Bft) 97,87 %
21.11.2016 12:16 13,1 C 12,2 C 10,6 C 85 % 0 lf 998,8 hPa 0,0 l/m 0 min 2 min 59 W/m 43,9 km/h (6 Bft) 95,74 %
21.11.2016 12:18 13,1 C 12,2 C 10,6 C 85 % 0 lf 998,8 hPa 0,0 l/m 0 min 2 min 66 W/m 23,0 km/h (4 Bft) 97,87 %
21.11.2016 12:20 13,1 C 12,8 C 10,6 C 85 % 0 lf 998,6 hPa 0,0 l/m 0 min 2 min 62 W/m 35,6 km/h (5 Bft) 95,65 %
21.11.2016 12:22 13,1 C 13,3 C 10,6 C 85 % 0 lf 998,7 hPa 0,0 l/m 0 min 2 min 57 W/m 31,4 km/h (5 Bft) 93,62 %
21.11.2016 12:24 13,1 C 13,3 C 10,6 C 85 % 0 lf 998,6 hPa 0,0 l/m 0 min 2 min 53 W/m 39,7 km/h (6 Bft) 97,87 %
21.11.2016 12:26 13,1 C 13,3 C 10,6 C 84 % 0 lf 998,7 hPa 0,0 l/m 0 min 2 min 47 W/m 35,6 km/h (5 Bft) 97,87 %
21.11.2016 12:28 13,2 C 13,9 C 10,6 C 84 % 0 lf 998,6 hPa 0,0 l/m 0 min 0 min 49 W/m 35,6 km/h (5 Bft) 91,49 %
21.11.2016 12:30 13,2 C 13,9 C 10,6 C 83 % 0 lf 998,6 hPa 0,0 l/m 0 min 0 min 54 W/m 25,1 km/h (4 Bft) 93,62 %
21.11.2016 12:32 13,2 C 13,9 C 11,1 C 83 % 0 lf 998,6 hPa 0,0 l/m 0 min 0 min 71 W/m 35,6 km/h (5 Bft) 95,65 %
21.11.2016 12:34 13,3 C 13,9 C 11,7 C 83 % 0 lf 998,5 hPa 0,0 l/m 0 min 2 min 84 W/m 43,9 km/h (6 Bft) 95,74 %
21.11.2016 12:36 13,3 C 13,9 C 11,7 C 83 % 0 lf 998,5 hPa 0,0 l/m 0 min 2 min 96 W/m 37,7 km/h (5 Bft) 93,62 %
21.11.2016 12:38 13,3 C 13,9 C 11,7 C 82 % 0 lf 998,4 hPa 0,0 l/m 0 min 2 min 104 W/m 46,0 km/h (6 Bft) 95,74 %
21.11.2016 12:40 13,4 C 13,9 C 11,7 C 82 % 0 lf 998,5 hPa 0,0 l/m 0 min 0 min 111 W/m 33,5 km/h (5 Bft) 97,87 %
21.11.2016 12:42 13,4 C 13,9 C 12,2 C 82 % 0 lf 998,4 hPa 0,0 l/m 0 min 0 min 120 W/m 43,9 km/h (6 Bft) 97,87 %
21.11.2016 12:44 13,4 C 13,9 C 12,2 C 82 % 0 lf 998,5 hPa 0,0 l/m 0 min 0 min 114 W/m 27,2 km/h (4 Bft) 97,83 %
21.11.2016 12:46 13,5 C 13,9 C 12,2 C 82 % 0 lf 998,5 hPa 0,0 l/m 0 min 0 min 111 W/m 35,6 km/h (5 Bft) 100,00 %
21.11.2016 12:48 13,5 C 13,9 C 12,8 C 81 % 0 lf 998,4 hPa 0,0 l/m 0 min 0 min 114 W/m 37,7 km/h (5 Bft) 93,62 %
21.11.2016 12:50 13,6 C 14,4 C 12,8 C 81 % 0 lf 998,5 hPa 0,0 l/m 0 min 0 min 117 W/m 31,4 km/h (5 Bft) 97,87 %
21.11.2016 12:52 13,6 C 13,9 C 12,8 C 80 % 0 lf 998,4 hPa 0,0 l/m 0 min 0 min 108 W/m 37,7 km/h (5 Bft) 93,62 %
21.11.2016 12:54 13,6 C 13,9 C 12,8 C 80 % 0 lf 998,4 hPa 0,0 l/m 0 min 0 min 86 W/m 33,5 km/h (5 Bft) 97,83 %
21.11.2016 12:56 13,7 C 13,9 C 12,8 C 80 % 0 lf 998,4 hPa 0,0 l/m 0 min 0 min 73 W/m 46,0 km/h (6 Bft) 100,00 %
21.11.2016 12:58 13,7 C 13,9 C 12,8 C 79 % 0 lf 998,3 hPa 0,0 l/m 0 min 0 min 65 W/m 37,7 km/h (5 Bft) 95,74 %
21.11.2016 13:00 13,7 C 13,9 C 12,2 C 79 % 0 lf 998,4 hPa 0,0 l/m 0 min 0 min 62 W/m 35,6 km/h (5 Bft) 97,87 %
21.11.2016 13:02 13,7 C 13,9 C 12,2 C 79 % 0 lf 998,4 hPa 0,0 l/m 0 min 0 min 70 W/m 46,0 km/h (6 Bft) 97,87 %
21.11.2016 13:04 13,8 C 14,4 C 12,8 C 78 % 0 lf 998,5 hPa 0,0 l/m 0 min 0 min 77 W/m 46,0 km/h (6 Bft) 95,74 %
21.11.2016 13:06 13,8 C 14,4 C 12,8 C 78 % 0 lf 998,3 hPa 0,0 l/m 0 min 0 min 81 W/m 27,2 km/h (4 Bft) 100,00 %
21.11.2016 13:08 13,8 C 14,4 C 12,8 C 78 % 0 lf 998,3 hPa 0,0 l/m 0 min 0 min 92 W/m 39,7 km/h (6 Bft) 97,87 %
21.11.2016 13:10 13,8 C 14,4 C 12,8 C 78 % 0 lf 998,4 hPa 0,0 l/m 0 min 2 min 99 W/m 37,7 km/h (5 Bft) 100,00 %
21.11.2016 13:12 13,8 C 14,4 C 12,8 C 78 % 0 lf 998,2 hPa 0,0 l/m 0 min 0 min 96 W/m 46,0 km/h (6 Bft) 97,87 %
21.11.2016 13:14 13,8 C 14,4 C 12,8 C 78 % 0 lf 998,5 hPa 0,0 l/m 0 min 0 min 88 W/m 39,7 km/h (6 Bft) 97,87 %
21.11.2016 13:16 13,9 C 14,4 C 12,8 C 78 % 0 lf 998,5 hPa 0,0 l/m 0 min 0 min 84 W/m 39,7 km/h (6 Bft) 95,74 %
21.11.2016 13:18 13,9 C 14,4 C 12,8 C 78 % 0 lf 998,6 hPa 0,0 l/m 0 min 0 min 87 W/m 39,7 km/h (6 Bft) 93,48 %
21.11.2016 13:20 13,9 C 14,4 C 12,8 C 78 % 0 lf 998,5 hPa 0,0 l/m 0 min 0 min 96 W/m 43,9 km/h (6 Bft) 89,36 %
21.11.2016 13:22 13,9 C 14,4 C 12,8 C 77 % 0 lf 998,6 hPa 0,0 l/m 0 min 0 min 115 W/m 37,7 km/h (5 Bft) 93,62 %
21.11.2016 13:24 13,9 C 14,4 C 12,8 C 77 % 0 lf 998,5 hPa 0,0 l/m 0 min 0 min 130 W/m 33,5 km/h (5 Bft) 93,62 %
21.11.2016 13:26 14,0 C 15,0 C 12,8 C 77 % 0 lf 998,6 hPa 0,0 l/m 0 min 0 min 140 W/m 35,6 km/h (5 Bft) 93,62 %
21.11.2016 13:28 14,0 C 15,0 C 13,3 C 77 % 0 lf 998,4 hPa 0,0 l/m 0 min 0 min 147 W/m 27,2 km/h (4 Bft) 91,49 %
21.11.2016 13:30 14,1 C 15,0 C 13,3 C 77 % 0 lf 998,4 hPa 0,0 l/m 0 min 0 min 142 W/m 37,7 km/h (5 Bft) 89,13 %
21.11.2016 13:32 14,1 C 15,0 C 13,3 C 77 % 0 lf 998,3 hPa 0,0 l/m 0 min 0 min 127 W/m 43,9 km/h (6 Bft) 91,49 %
21.11.2016 13:34 14,2 C 15,0 C 12,8 C 77 % 0 lf 998,3 hPa 0,0 l/m 0 min 0 min 118 W/m 31,4 km/h (5 Bft) 91,49 %
21.11.2016 13:36 14,2 C 14,4 C 12,8 C 77 % 0 lf 998,2 hPa 0,0 l/m 0 min 0 min 111 W/m 29,3 km/h (5 Bft) 93,62 %
21.11.2016 13:38 14,2 C 14,4 C 12,8 C 77 % 0 lf 998,2 hPa 0,0 l/m 0 min 0 min 105 W/m 41,8 km/h (6 Bft) 91,49 %
21.11.2016 13:40 14,2 C 14,4 C 12,8 C 76 % 0 lf 998,2 hPa 0,0 l/m 0 min 0 min 106 W/m 35,6 km/h (5 Bft) 93,62 %
21.11.2016 13:42 14,2 C 14,4 C 12,8 C 76 % 0 lf 998,2 hPa 0,0 l/m 0 min 0 min 115 W/m 18,8 km/h (3 Bft) 93,48 %
21.11.2016 13:44 14,2 C 15,0 C 13,3 C 77 % 0 lf 998,3 hPa 0,0 l/m 0 min 0 min 119 W/m 25,1 km/h (4 Bft) 93,62 %
21.11.2016 13:46 14,2 C 15,0 C 13,3 C 77 % 0 lf 998,2 hPa 0,0 l/m 0 min 0 min 113 W/m 20,9 km/h (4 Bft) 93,62 %
21.11.2016 13:48 14,2 C 14,4 C 13,3 C 77 % 0 lf 998,2 hPa 0,0 l/m 0 min 0 min 97 W/m 18,8 km/h (3 Bft) 93,62 %
21.11.2016 13:50 14,2 C 14,4 C 13,3 C 77 % 0 lf 998,2 hPa 0,0 l/m 0 min 0 min 87 W/m 16,7 km/h (3 Bft) 91,49 %
21.11.2016 13:52 14,2 C 14,4 C 12,8 C 77 % 0 lf 998,2 hPa 0,0 l/m 0 min 0 min 84 W/m 14,6 km/h (3 Bft) 89,36 %
21.11.2016 13:54 14,2 C 14,4 C 12,8 C 77 % 0 lf 998,2 hPa 0,0 l/m 0 min 0 min 86 W/m 27,2 km/h (4 Bft) 93,48 %
21.11.2016 13:56 14,2 C 14,4 C 12,8 C 77 % 0 lf 998,2 hPa 0,0 l/m 0 min 0 min 87 W/m 29,3 km/h (5 Bft) 93,62 %
21.11.2016 13:58 14,2 C 14,4 C 12,8 C 77 % 0 lf 998,2 hPa 0,0 l/m 0 min 0 min 77 W/m 23,0 km/h (4 Bft) 93,62 %
21.11.2016 14:00 14,2 C 14,4 C 12,8 C 78 % 0 lf 998,2 hPa 0,0 l/m 0 min 0 min 70 W/m 23,0 km/h (4 Bft) 95,74 %
21.11.2016 14:02 14,2 C 14,4 C 12,8 C 78 % 0 lf 998,2 hPa 0,0 l/m 0 min 0 min 67 W/m 25,1 km/h (4 Bft) 89,36 %
21.11.2016 14:04 14,2 C 14,4 C 12,8 C 78 % 0 lf 998,2 hPa 0,0 l/m 0 min 0 min 65 W/m 23,0 km/h (4 Bft) 95,74 %
21.11.2016 14:06 14,2 C 13,9 C 12,8 C 78 % 0 lf 998,2 hPa 0,0 l/m 0 min 0 min 56 W/m 27,2 km/h (4 Bft) 97,83 %
21.11.2016 14:08 14,2 C 13,9 C 12,8 C 78 % 0 lf 998,2 hPa 0,0 l/m 0 min 2 min 58 W/m 25,1 km/h (4 Bft) 95,74 %
21.11.2016 14:10 14,1 C 13,9 C 12,8 C 78 % 0 lf 998,1 hPa 0,0 l/m 0 min 2 min 54 W/m 25,1 km/h (4 Bft) 95,74 %
21.11.2016 14:12 14,1 C 13,9 C 12,2 C 78 % 0 lf 998,2 hPa 0,0 l/m 0 min 2 min 54 W/m 33,5 km/h (5 Bft) 97,87 %
21.11.2016 14:14 14,0 C 13,9 C 12,2 C 78 % 0 lf 998,1 hPa 0,0 l/m 0 min 2 min 53 W/m 23,0 km/h (4 Bft) 100,00 %
21.11.2016 14:16 14,0 C 13,9 C 12,2 C 78 % 0 lf 998,1 hPa 0,0 l/m 0 min 0 min 51 W/m 20,9 km/h (4 Bft) 93,48 %
21.11.2016 14:18 13,9 C 13,9 C 12,2 C 78 % 0 lf 998,0 hPa 0,0 l/m 0 min 2 min 55 W/m 31,4 km/h (5 Bft) 97,87 %
21.11.2016 14:20 13,9 C 13,9 C 12,2 C 78 % 0 lf 998,0 hPa 0,0 l/m 0 min 0 min 55 W/m 16,7 km/h (3 Bft) 100,00 %
21.11.2016 14:22 13,9 C 13,9 C 12,2 C 78 % 0 lf 998,0 hPa 0,0 l/m 0 min 2 min 56 W/m 23,0 km/h (4 Bft) 95,74 %
21.11.2016 14:24 13,8 C 13,9 C 12,2 C 78 % 0 lf 998,0 hPa 0,0 l/m 0 min 0 min 52 W/m 18,8 km/h (3 Bft) 97,87 %
21.11.2016 14:26 13,8 C 13,9 C 12,2 C 78 % 0 lf 998,0 hPa 0,0 l/m 0 min 2 min 48 W/m 23,0 km/h (4 Bft) 93,62 %
21.11.2016 14:28 13,8 C 13,9 C 12,2 C 78 % 0 lf 998,0 hPa 0,0 l/m 0 min 2 min 53 W/m 14,6 km/h (3 Bft) 100,00 %
21.11.2016 14:30 13,7 C 13,9 C 12,2 C 78 % 0 lf 997,9 hPa 0,0 l/m 0 min 2 min 60 W/m 18,8 km/h (3 Bft) 97,83 %
21.11.2016 14:32 13,7 C 13,9 C 12,2 C 78 % 0 lf 998,0 hPa 0,0 l/m 0 min 0 min 68 W/m 18,8 km/h (3 Bft) 100,00 %
21.11.2016 14:34 13,7 C 13,9 C 12,2 C 78 % 0 lf 998,0 hPa 0,0 l/m 0 min 0 min 81 W/m 20,9 km/h (4 Bft) 97,87 %
21.11.2016 14:36 13,7 C 13,9 C 12,2 C 78 % 0 lf 998,1 hPa 0,0 l/m 0 min 0 min 84 W/m 18,8 km/h (3 Bft) 100,00 %
21.11.2016 14:38 13,7 C 13,9 C 12,2 C 78 % 0 lf 998,0 hPa 0,0 l/m 0 min 2 min 77 W/m 20,9 km/h (4 Bft) 93,62 %
21.11.2016 14:40 13,6 C 13,9 C 12,2 C 78 % 0 lf 998,0 hPa 0,0 l/m 0 min 0 min 72 W/m 27,2 km/h (4 Bft) 97,83 %
21.11.2016 14:42 13,6 C 13,9 C 12,2 C 78 % 0 lf 997,9 hPa 0,0 l/m 0 min 0 min 70 W/m 23,0 km/h (4 Bft) 100,00 %
21.11.2016 14:44 13,6 C 13,9 C 12,2 C 79 % 0 lf 997,9 hPa 0,0 l/m 0 min 0 min 72 W/m 23,0 km/h (4 Bft) 100,00 %
21.11.2016 14:46 13,6 C 13,9 C 12,2 C 79 % 0 lf 997,8 hPa 0,0 l/m 0 min 0 min 75 W/m 18,8 km/h (3 Bft) 100,00 %
21.11.2016 14:48 13,6 C 13,9 C 12,2 C 79 % 0 lf 997,8 hPa 0,0 l/m 0 min 0 min 70 W/m 18,8 km/h (3 Bft) 100,00 %
21.11.2016 14:50 13,6 C 13,9 C 12,2 C 79 % 0 lf 997,7 hPa 0,0 l/m 0 min 2 min 69 W/m 20,9 km/h (4 Bft) 95,74 %
21.11.2016 14:52 13,6 C 13,9 C 12,2 C 80 % 0 lf 997,8 hPa 0,0 l/m 0 min 2 min 69 W/m 18,8 km/h (3 Bft) 100,00 %
21.11.2016 14:54 13,6 C 13,9 C 11,7 C 80 % 0 lf 997,8 hPa 0,0 l/m 0 min 2 min 69 W/m 14,6 km/h (3 Bft) 100,00 %
21.11.2016 14:56 13,6 C 13,9 C 11,7 C 80 % 0 lf 997,8 hPa 0,0 l/m 0 min 0 min 66 W/m 18,8 km/h (3 Bft) 97,87 %
21.11.2016 14:58 13,6 C 13,9 C 12,2 C 80 % 0 lf 997,8 hPa 0,0 l/m 0 min 2 min 61 W/m 16,7 km/h (3 Bft) 100,00 %
21.11.2016 15:00 13,5 C 13,9 C 12,2 C 80 % 0 lf 997,7 hPa 0,0 l/m 0 min 2 min 55 W/m 23,0 km/h (4 Bft) 100,00 %
21.11.2016 15:02 13,5 C 13,9 C 12,2 C 80 % 0 lf 997,7 hPa 0,0 l/m 0 min 0 min 54 W/m 18,8 km/h (3 Bft) 100,00 %
21.11.2016 15:04 13,5 C 13,9 C 12,2 C 80 % 1 lf 997,7 hPa 0,0 l/m 0 min 0 min 61 W/m 25,1 km/h (4 Bft) 97,83 %
21.11.2016 15:06 13,5 C 13,9 C 12,2 C 80 % 0 lf 997,6 hPa 0,0 l/m 0 min 2 min 67 W/m 23,0 km/h (4 Bft) 100,00 %
21.11.2016 15:08 13,6 C 13,9 C 12,2 C 80 % 0 lf 997,6 hPa 0,0 l/m 0 min 0 min 69 W/m 25,1 km/h (4 Bft) 97,87 %
21.11.2016 15:10 13,6 C 13,9 C 12,2 C 81 % 0 lf 997,6 hPa 0,0 l/m 0 min 0 min 70 W/m 37,7 km/h (5 Bft) 97,87 %
21.11.2016 15:12 13,6 C 13,9 C 12,2 C 81 % 0 lf 997,6 hPa 0,0 l/m 0 min 2 min 69 W/m 37,7 km/h (5 Bft) 97,87 %
21.11.2016 15:14 13,7 C 14,4 C 12,2 C 81 % 0 lf 997,5 hPa 0,0 l/m 0 min 0 min 67 W/m 31,4 km/h (5 Bft) 93,62 %
21.11.2016 15:16 13,7 C 14,4 C 12,2 C 81 % 0 lf 997,6 hPa 0,0 l/m 0 min 0 min 67 W/m 20,9 km/h (4 Bft) 97,83 %
21.11.2016 15:18 13,7 C 14,4 C 12,2 C 81 % 0 lf 997,6 hPa 0,0 l/m 0 min 0 min 69 W/m 27,2 km/h (4 Bft) 93,62 %
21.11.2016 15:20 13,8 C 14,4 C 12,2 C 80 % 0 lf 997,6 hPa 0,0 l/m 0 min 0 min 64 W/m 27,2 km/h (4 Bft) 97,87 %
21.11.2016 15:22 13,8 C 14,4 C 12,8 C 80 % 0 lf 997,5 hPa 0,0 l/m 0 min 0 min 58 W/m 25,1 km/h (4 Bft) 95,74 %
21.11.2016 15:24 13,8 C 14,4 C 12,8 C 80 % 0 lf 997,5 hPa 0,0 l/m 0 min 0 min 57 W/m 31,4 km/h (5 Bft) 97,87 %
21.11.2016 15:26 13,9 C 14,4 C 12,8 C 80 % 0 lf 997,4 hPa 0,0 l/m 0 min 0 min 55 W/m 33,5 km/h (5 Bft) 95,74 %
21.11.2016 15:28 13,9 C 14,4 C 12,8 C 80 % 0 lf 997,3 hPa 0,0 l/m 0 min 0 min 54 W/m 25,1 km/h (4 Bft) 97,83 %
21.11.2016 15:30 13,9 C 14,4 C 12,8 C 80 % 0 lf 997,4 hPa 0,0 l/m 0 min 0 min 54 W/m 18,8 km/h (3 Bft) 93,62 %
21.11.2016 15:32 13,9 C 14,4 C 12,8 C 80 % 0 lf 997,5 hPa 0,0 l/m 0 min 0 min 52 W/m 27,2 km/h (4 Bft) 97,87 %
21.11.2016 15:34 13,9 C 14,4 C 12,2 C 80 % 0 lf 997,4 hPa 0,0 l/m 0 min 0 min 53 W/m 29,3 km/h (5 Bft) 95,74 %
21.11.2016 15:36 13,9 C 14,4 C 12,2 C 80 % 0 lf 997,5 hPa 0,0 l/m 0 min 0 min 55 W/m 27,2 km/h (4 Bft) 95,74 %
21.11.2016 15:38 13,9 C 14,4 C 12,2 C 80 % 0 lf 997,5 hPa 0,0 l/m 0 min 0 min 56 W/m 29,3 km/h (5 Bft) 95,65 %
21.11.2016 15:40 14,0 C 14,4 C 12,2 C 80 % 0 lf 997,5 hPa 0,0 l/m 0 min 0 min 54 W/m 29,3 km/h (5 Bft) 95,74 %
21.11.2016 15:42 13,9 C 14,4 C 12,2 C 80 % 0 lf 997,5 hPa 0,0 l/m 0 min 0 min 53 W/m 25,1 km/h (4 Bft) 95,74 %
21.11.2016 15:44 14,0 C 14,4 C 12,2 C 80 % 0 lf 997,5 hPa 0,0 l/m 2 min 0 min 52 W/m 29,3 km/h (5 Bft) 95,74 %
21.11.2016 15:46 14,0 C 14,4 C 12,2 C 80 % 0 lf 997,5 hPa 0,0 l/m 2 min 0 min 50 W/m 33,5 km/h (5 Bft) 93,62 %
21.11.2016 15:48 14,0 C 14,4 C 12,2 C 80 % 0 lf 997,5 hPa 0,0 l/m 0 min 0 min 46 W/m 29,3 km/h (5 Bft) 93,62 %
21.11.2016 15:50 13,9 C 14,4 C 12,2 C 80 % 0 lf 997,5 hPa 0,0 l/m 0 min 0 min 43 W/m 46,0 km/h (6 Bft) 95,65 %
21.11.2016 15:52 14,0 C 13,9 C 12,2 C 80 % 0 lf 997,5 hPa 0,0 l/m 0 min 0 min 39 W/m 31,4 km/h (5 Bft) 97,87 %
21.11.2016 15:54 14,0 C 13,9 C 12,2 C 80 % 0 lf 997,6 hPa 0,0 l/m 0 min 0 min 35 W/m 29,3 km/h (5 Bft) 93,62 %
21.11.2016 15:56 14,0 C 13,9 C 12,2 C 80 % 0 lf 997,5 hPa 0,0 l/m 0 min 0 min 34 W/m 31,4 km/h (5 Bft) 93,62 %
21.11.2016 15:58 13,9 C 13,9 C 12,2 C 80 % 0 lf 997,4 hPa 0,0 l/m 0 min 2 min 32 W/m 31,4 km/h (5 Bft) 97,87 %
21.11.2016 16:00 13,9 C 13,9 C 12,2 C 80 % 0 lf 997,4 hPa 0,0 l/m 0 min 0 min 30 W/m 35,6 km/h (5 Bft) 95,74 %
21.11.2016 16:02 13,9 C 13,9 C 12,2 C 80 % 0 lf 997,4 hPa 0,0 l/m 0 min 0 min 27 W/m 37,7 km/h (5 Bft) 93,48 %
21.11.2016 16:04 13,9 C 13,9 C 11,7 C 81 % 0 lf 997,4 hPa 0,0 l/m 0 min 0 min 25 W/m 31,4 km/h (5 Bft) 93,62 %
21.11.2016 16:06 13,9 C 13,9 C 12,2 C 81 % 0 lf 997,3 hPa 0,0 l/m 0 min 0 min 24 W/m 25,1 km/h (4 Bft) 95,74 %
21.11.2016 16:08 13,9 C 13,9 C 11,7 C 81 % 0 lf 997,2 hPa 0,0 l/m 0 min 0 min 23 W/m 31,4 km/h (5 Bft) 93,62 %
21.11.2016 16:10 13,8 C 13,9 C 11,7 C 81 % 0 lf 997,3 hPa 0,0 l/m 0 min 0 min 22 W/m 31,4 km/h (5 Bft) 95,74 %
21.11.2016 16:12 13,8 C 13,9 C 11,7 C 81 % 0 lf 997,2 hPa 0,0 l/m 0 min 0 min 20 W/m 23,0 km/h (4 Bft) 95,74 %
21.11.2016 16:14 13,8 C 13,9 C 11,7 C 81 % 0 lf 997,2 hPa 0,0 l/m 0 min 0 min 18 W/m 31,4 km/h (5 Bft) 89,13 %
21.11.2016 16:16 13,8 C 13,9 C 11,7 C 81 % 0 lf 997,3 hPa 0,0 l/m 0 min 0 min 17 W/m 27,2 km/h (4 Bft) 89,36 %
21.11.2016 16:18 13,8 C 13,9 C 11,7 C 81 % 0 lf 997,2 hPa 0,0 l/m 0 min 0 min 16 W/m 27,2 km/h (4 Bft) 89,36 %
21.11.2016 16:20 13,7 C 13,9 C 11,7 C 81 % 0 lf 997,3 hPa 0,0 l/m 0 min 0 min 16 W/m 25,1 km/h (4 Bft) 93,62 %
21.11.2016 16:22 13,7 C 13,9 C 11,7 C 81 % 0 lf 997,3 hPa 0,0 l/m 0 min 0 min 16 W/m 31,4 km/h (5 Bft) 93,62 %
21.11.2016 16:24 13,7 C 13,9 C 11,7 C 81 % 0 lf 997,3 hPa 0,0 l/m 0 min 0 min 14 W/m 20,9 km/h (4 Bft) 89,36 %
21.11.2016 16:26 13,7 C 13,9 C 11,7 C 82 % 0 lf 997,2 hPa 0,0 l/m 0 min 0 min 14 W/m 25,1 km/h (4 Bft) 91,30 %
21.11.2016 16:28 13,7 C 13,3 C 11,7 C 82 % 0 lf 997,2 hPa 0,0 l/m 0 min 0 min 14 W/m 25,1 km/h (4 Bft) 93,62 %
21.11.2016 16:30 13,7 C 13,3 C 11,7 C 82 % 0 lf 997,2 hPa 0,0 l/m 0 min 0 min 16 W/m 29,3 km/h (5 Bft) 93,62 %
21.11.2016 16:32 13,7 C 13,9 C 11,7 C 82 % 0 lf 997,2 hPa 0,0 l/m 0 min 0 min 19 W/m 23,0 km/h (4 Bft) 91,49 %
21.11.2016 16:34 13,6 C 13,9 C 11,7 C 82 % 0 lf 997,2 hPa 0,0 l/m 0 min 0 min 17 W/m 20,9 km/h (4 Bft) 93,62 %
21.11.2016 16:36 13,6 C 13,3 C 11,7 C 82 % 0 lf 997,2 hPa 0,0 l/m 0 min 0 min 11 W/m 31,4 km/h (5 Bft) 91,49 %
21.11.2016 16:38 13,6 C 13,3 C 11,7 C 82 % 0 lf 997,3 hPa 0,0 l/m 0 min 0 min 8 W/m 25,1 km/h (4 Bft) 91,30 %
21.11.2016 16:40 13,6 C 13,3 C 11,7 C 82 % 0 lf 997,3 hPa 0,0 l/m 0 min 0 min 7 W/m 25,1 km/h (4 Bft) 95,74 %
21.11.2016 16:42 13,6 C 13,3 C 11,7 C 82 % 0 lf 997,4 hPa 0,0 l/m 0 min 0 min 7 W/m 20,9 km/h (4 Bft) 95,74 %
21.11.2016 16:44 13,6 C 13,3 C 11,7 C 82 % 0 lf 997,4 hPa 0,0 l/m 0 min 0 min 5 W/m 31,4 km/h (5 Bft) 95,74 %
21.11.2016 16:46 13,6 C 13,9 C 11,7 C 83 % 0 lf 997,3 hPa 0,0 l/m 0 min 0 min 5 W/m 25,1 km/h (4 Bft) 91,49 %
21.11.2016 16:48 13,5 C 13,9 C 11,7 C 82 % 0 lf 997,3 hPa 0,0 l/m 0 min 0 min 5 W/m 29,3 km/h (5 Bft) 93,48 %
21.11.2016 16:50 13,5 C 13,9 C 11,7 C 82 % 0 lf 997,4 hPa 0,0 l/m 0 min 0 min 5 W/m 31,4 km/h (5 Bft) 93,62 %
21.11.2016 16:52 13,5 C 13,9 C 11,7 C 83 % 0 lf 997,4 hPa 0,0 l/m 0 min 0 min 5 W/m 25,1 km/h (4 Bft) 95,74 %
21.11.2016 16:54 13,6 C 13,9 C 11,7 C 83 % 0 lf 997,4 hPa 0,0 l/m 0 min 0 min 5 W/m 23,0 km/h (4 Bft) 93,62 %
21.11.2016 16:56 13,6 C 13,9 C 11,7 C 83 % 0 lf 997,3 hPa 0,0 l/m 0 min 0 min 5 W/m 29,3 km/h (5 Bft) 95,74 %
21.11.2016 16:58 13,6 C 13,9 C 11,7 C 83 % 0 lf 997,4 hPa 0,0 l/m 0 min 0 min 5 W/m 20,9 km/h (4 Bft) 91,49 %
21.11.2016 17:00 13,6 C 13,9 C 11,7 C 83 % 0 lf 997,3 hPa 0,0 l/m 0 min 0 min 5 W/m 16,7 km/h (3 Bft) 100,00 %
21.11.2016 17:02 13,6 C 13,3 C 11,7 C 83 % 0 lf 997,4 hPa 0,0 l/m 0 min 0 min 5 W/m 25,1 km/h (4 Bft) 100,00 %
21.11.2016 17:04 13,6 C 13,9 C 11,7 C 83 % 0 lf 997,5 hPa 0,0 l/m 0 min 0 min 5 W/m 25,1 km/h (4 Bft) 97,87 %
21.11.2016 17:06 13,6 C 13,9 C 11,7 C 83 % 0 lf 997,5 hPa 0,0 l/m 0 min 0 min 5 W/m 27,2 km/h (4 Bft) 95,74 %
21.11.2016 17:08 13,6 C 13,9 C 11,7 C 83 % 0 lf 997,6 hPa 0,0 l/m 0 min 0 min 5 W/m 23,0 km/h (4 Bft) 97,87 %
21.11.2016 17:10 13,6 C 13,9 C 11,7 C 83 % 0 lf 997,5 hPa 0,0 l/m 0 min 0 min 5 W/m 27,2 km/h (4 Bft) 97,87 %
21.11.2016 17:12 13,6 C 13,9 C 11,7 C 83 % 0 lf 997,5 hPa 0,0 l/m 0 min 0 min 5 W/m 27,2 km/h (4 Bft) 93,48 %
21.11.2016 17:14 13,6 C 13,3 C 11,7 C 82 % 0 lf 997,5 hPa 0,0 l/m 0 min 0 min 5 W/m 23,0 km/h (4 Bft) 97,87 %
21.11.2016 17:16 13,6 C 13,3 C 11,7 C 82 % 0 lf 997,5 hPa 0,0 l/m 0 min 0 min 5 W/m 23,0 km/h (4 Bft) 97,87 %
21.11.2016 17:18 13,5 C 13,3 C 11,7 C 82 % 0 lf 997,5 hPa 0,0 l/m 0 min 0 min 5 W/m 16,7 km/h (3 Bft) 97,87 %
21.11.2016 17:20 13,5 C 13,9 C 11,7 C 82 % 0 lf 997,5 hPa 0,0 l/m 0 min 0 min 5 W/m 20,9 km/h (4 Bft) 97,87 %
21.11.2016 17:22 13,5 C 13,3 C 11,7 C 82 % 0 lf 997,4 hPa 0,0 l/m 0 min 0 min 5 W/m 20,9 km/h (4 Bft) 100,00 %
21.11.2016 17:24 13,6 C 13,3 C 11,7 C 82 % 0 lf 997,5 hPa 0,0 l/m 0 min 0 min 5 W/m 23,0 km/h (4 Bft) 93,48 %
21.11.2016 17:26 13,5 C 13,9 C 11,7 C 82 % 0 lf 997,6 hPa 0,0 l/m 0 min 0 min 5 W/m 33,5 km/h (5 Bft) 97,87 %
21.11.2016 17:28 13,5 C 13,9 C 11,7 C 82 % 0 lf 997,6 hPa 0,0 l/m 0 min 0 min 5 W/m 23,0 km/h (4 Bft) 93,62 %
21.11.2016 17:30 13,5 C 13,9 C 11,7 C 82 % 0 lf 997,6 hPa 0,0 l/m 0 min 0 min 5 W/m 25,1 km/h (4 Bft) 97,87 %
21.11.2016 17:32 13,5 C 13,9 C 11,7 C 82 % 0 lf 997,6 hPa 0,0 l/m 0 min 0 min 5 W/m 20,9 km/h (4 Bft) 97,87 %
21.11.2016 17:34 13,5 C 13,9 C 11,7 C 82 % 0 lf 997,5 hPa 0,0 l/m 0 min 0 min 5 W/m 33,5 km/h (5 Bft) 97,87 %
21.11.2016 17:36 13,5 C 13,9 C 11,7 C 82 % 0 lf 997,7 hPa 0,0 l/m 0 min 0 min 5 W/m 29,3 km/h (5 Bft) 97,83 %
21.11.2016 17:38 13,5 C 13,9 C 11,7 C 82 % 0 lf 997,7 hPa 0,0 l/m 0 min 0 min 5 W/m 37,7 km/h (5 Bft) 97,87 %
21.11.2016 17:40 13,5 C 13,9 C 11,7 C 82 % 0 lf 997,6 hPa 0,0 l/m 0 min 0 min 5 W/m 25,1 km/h (4 Bft) 95,74 %
21.11.2016 17:42 13,5 C 13,9 C 11,7 C 82 % 0 lf 997,7 hPa 0,0 l/m 0 min 0 min 5 W/m 31,4 km/h (5 Bft) 95,74 %
21.11.2016 17:44 13,5 C 13,9 C 11,7 C 82 % 0 lf 997,7 hPa 0,0 l/m 0 min 0 min 5 W/m 23,0 km/h (4 Bft) 95,74 %
21.11.2016 17:46 13,5 C 13,3 C 11,7 C 82 % 0 lf 997,7 hPa 0,0 l/m 0 min 0 min 5 W/m 18,8 km/h (3 Bft) 93,62 %
21.11.2016 17:48 13,5 C 13,3 C 11,7 C 82 % 0 lf 997,6 hPa 0,0 l/m 0 min 0 min 5 W/m 23,0 km/h (4 Bft) 100,00 %
21.11.2016 17:50 13,5 C 13,3 C 11,7 C 82 % 0 lf 997,5 hPa 0,0 l/m 0 min 0 min 5 W/m 27,2 km/h (4 Bft) 97,87 %
21.11.2016 17:52 13,5 C 13,9 C 11,7 C 81 % 0 lf 997,6 hPa 0,0 l/m 0 min 0 min 5 W/m 29,3 km/h (5 Bft) 97,87 %
21.11.2016 17:54 13,5 C 13,3 C 11,7 C 81 % 0 lf 997,5 hPa 0,0 l/m 0 min 0 min 5 W/m 20,9 km/h (4 Bft) 100,00 %
21.11.2016 17:56 13,5 C 13,9 C 11,7 C 81 % 0 lf 997,6 hPa 0,0 l/m 0 min 0 min 5 W/m 25,1 km/h (4 Bft) 100,00 %
21.11.2016 17:58 13,5 C 13,9 C 11,7 C 81 % 0 lf 997,5 hPa 0,0 l/m 0 min 0 min 5 W/m 25,1 km/h (4 Bft) 97,87 %
21.11.2016 18:00 13,5 C 13,3 C 11,7 C 81 % 0 lf 997,7 hPa 0,0 l/m 0 min 0 min 5 W/m 25,1 km/h (4 Bft) 100,00 %
21.11.2016 18:02 13,5 C 13,3 C 11,7 C 81 % 0 lf 997,7 hPa 0,0 l/m 0 min 0 min 5 W/m 20,9 km/h (4 Bft) 100,00 %
21.11.2016 18:06 13,5 C 13,3 C 11,7 C 81 % 0 lf 997,7 hPa 0,0 l/m 0 min 0 min 5 W/m 25,1 km/h (4 Bft) 97,87 %
21.11.2016 18:08 13,4 C 13,3 C 11,7 C 81 % 0 lf 997,7 hPa 0,0 l/m 0 min 0 min 5 W/m 18,8 km/h (3 Bft) 95,74 %
21.11.2016 18:10 13,4 C 13,3 C 11,7 C 81 % 0 lf 997,7 hPa 0,0 l/m 0 min 0 min 5 W/m 25,1 km/h (4 Bft) 100,00 %
21.11.2016 18:12 13,4 C 13,3 C 11,7 C 81 % 0 lf 997,8 hPa 0,0 l/m 0 min 2 min 5 W/m 25,1 km/h (4 Bft) 97,83 %
21.11.2016 18:14 13,5 C 12,2 C 11,1 C 81 % 0 lf 997,9 hPa 0,0 l/m 0 min 2 min 5 W/m 31,4 km/h (5 Bft) 100,00 %
21.11.2016 18:16 13,4 C 12,8 C 11,1 C 82 % 0 lf 997,9 hPa 0,0 l/m 0 min 2 min 5 W/m 23,0 km/h (4 Bft) 100,00 %
21.11.2016 18:18 13,5 C 12,8 C 11,1 C 82 % 0 lf 997,9 hPa 0,0 l/m 0 min 2 min 5 W/m 16,7 km/h (3 Bft) 100,00 %
21.11.2016 18:20 13,4 C 12,2 C 10,6 C 82 % 1 lf 997,9 hPa 0,0 l/m 0 min 2 min 5 W/m 18,8 km/h (3 Bft) 95,74 %
21.11.2016 18:22 13,4 C 12,2 C 10,6 C 82 % 0 lf 998,0 hPa 0,0 l/m 0 min 2 min 5 W/m 23,0 km/h (4 Bft) 97,83 %
21.11.2016 18:24 13,4 C 12,2 C 10,6 C 83 % 0 lf 998,0 hPa 0,0 l/m 0 min 2 min 5 W/m 20,9 km/h (4 Bft) 95,74 %
21.11.2016 18:26 13,4 C 12,2 C 10,6 C 83 % 0 lf 998,0 hPa 0,0 l/m 0 min 2 min 5 W/m 18,8 km/h (3 Bft) 97,87 %
21.11.2016 18:28 13,4 C 11,7 C 10,6 C 83 % 0 lf 998,1 hPa 0,0 l/m 0 min 2 min 5 W/m 20,9 km/h (4 Bft) 100,00 %
21.11.2016 18:30 13,3 C 11,7 C 10,6 C 83 % 0 lf 998,1 hPa 0,0 l/m 0 min 2 min 5 W/m 18,8 km/h (3 Bft) 97,87 %
21.11.2016 18:32 13,3 C 12,2 C 10,6 C 83 % 0 lf 998,2 hPa 0,0 l/m 0 min 2 min 5 W/m 20,9 km/h (4 Bft) 100,00 %
21.11.2016 18:34 13,3 C 12,2 C 10,6 C 83 % 0 lf 998,2 hPa 0,0 l/m 0 min 2 min 5 W/m 16,7 km/h (3 Bft) 97,83 %
21.11.2016 18:36 13,2 C 12,2 C 10,0 C 83 % 0 lf 998,2 hPa 0,2 l/m 0 min 2 min 5 W/m 18,8 km/h (3 Bft) 97,87 %
21.11.2016 18:38 13,2 C 12,2 C 10,0 C 84 % 0 lf 998,3 hPa 0,0 l/m 0 min 2 min 5 W/m 27,2 km/h (4 Bft) 100,00 %
21.11.2016 18:40 13,2 C 12,2 C 10,0 C 84 % 0 lf 998,3 hPa 0,0 l/m 0 min 0 min 5 W/m 23,0 km/h (4 Bft) 100,00 %
21.11.2016 18:42 13,2 C 12,2 C 10,0 C 84 % 0 lf 998,4 hPa 0,0 l/m 0 min 0 min 5 W/m 18,8 km/h (3 Bft) 100,00 %
21.11.2016 18:44 13,1 C 12,8 C 10,0 C 84 % 0 lf 998,4 hPa 0,0 l/m 0 min 2 min 5 W/m 29,3 km/h (5 Bft) 95,74 %
21.11.2016 18:46 13,1 C 12,8 C 10,6 C 84 % 0 lf 998,5 hPa 0,0 l/m 0 min 0 min 5 W/m 25,1 km/h (4 Bft) 97,83 %
21.11.2016 18:48 13,1 C 12,8 C 10,6 C 84 % 0 lf 998,6 hPa 0,0 l/m 0 min 2 min 5 W/m 23,0 km/h (4 Bft) 95,74 %
21.11.2016 18:50 13,1 C 12,8 C 10,6 C 83 % 1 lf 998,6 hPa 0,0 l/m 0 min 2 min 5 W/m 20,9 km/h (4 Bft) 97,87 %
21.11.2016 18:52 13,1 C 12,2 C 10,6 C 84 % 0 lf 998,7 hPa 0,0 l/m 0 min 2 min 5 W/m 16,7 km/h (3 Bft) 100,00 %
21.11.2016 18:54 13,1 C 12,2 C 10,0 C 84 % 0 lf 998,7 hPa 0,0 l/m 0 min 2 min 5 W/m 16,7 km/h (3 Bft) 100,00 %
21.11.2016 18:56 13,1 C 12,2 C 10,0 C 84 % 2 lf 998,7 hPa 0,0 l/m 0 min 2 min 5 W/m 16,7 km/h (3 Bft) 95,74 %
21.11.2016 18:58 13,1 C 12,2 C 10,0 C 84 % 1 lf 998,8 hPa 0,0 l/m 0 min 2 min 5 W/m 16,7 km/h (3 Bft) 97,83 %
21.11.2016 19:00 13,1 C 11,7 C 10,0 C 84 % 2 lf 999,0 hPa 0,0 l/m 0 min 2 min 5 W/m 16,7 km/h (3 Bft) 93,62 %
21.11.2016 19:02 13,1 C 11,7 C 10,0 C 84 % 4 lf 999,0 hPa 0,0 l/m 0 min 2 min 5 W/m 18,8 km/h (3 Bft) 97,87 %
21.11.2016 19:04 13,1 C 11,1 C 10,0 C 85 % 5 lf 999,1 hPa 0,0 l/m 0 min 2 min 5 W/m 18,8 km/h (3 Bft) 91,49 %
21.11.2016 19:06 13,1 C 11,1 C 10,0 C 85 % 10 lf 999,2 hPa 0,0 l/m 0 min 2 min 5 W/m 16,7 km/h (3 Bft) 91,49 %
21.11.2016 19:08 13,0 C 11,1 C 10,0 C 85 % 13 lf 999,3 hPa 0,2 l/m 0 min 2 min 5 W/m 18,8 km/h (3 Bft) 93,62 %
21.11.2016 19:10 13,0 C 11,1 C 9,4 C 85 % 15 lf 999,3 hPa 0,0 l/m 0 min 2 min 5 W/m 18,8 km/h (3 Bft) 91,30 %
21.11.2016 19:12 12,9 C 10,6 C 9,4 C 86 % 15 lf 999,4 hPa 0,0 l/m 0 min 2 min 5 W/m 20,9 km/h (4 Bft) 93,62 %
21.11.2016 19:14 12,9 C 10,6 C 9,4 C 86 % 15 lf 999,4 hPa 0,2 l/m 0 min 2 min 5 W/m 20,9 km/h (4 Bft) 97,83 %
21.11.2016 19:16 12,8 C 11,1 C 9,4 C 87 % 15 lf 999,4 hPa 0,0 l/m 0 min 2 min 5 W/m 27,2 km/h (4 Bft) 93,62 %
21.11.2016 19:18 12,8 C 11,1 C 10,0 C 87 % 15 lf 999,4 hPa 0,0 l/m 0 min 2 min 5 W/m 27,2 km/h (4 Bft) 89,36 %
21.11.2016 19:20 12,8 C 11,1 C 9,4 C 87 % 15 lf 999,4 hPa 0,0 l/m 0 min 2 min 5 W/m 20,9 km/h (4 Bft) 93,62 %
21.11.2016 19:22 12,7 C 11,1 C 9,4 C 88 % 15 lf 999,4 hPa 0,0 l/m 0 min 2 min 5 W/m 23,0 km/h (4 Bft) 91,30 %
21.11.2016 19:24 12,7 C 11,1 C 10,0 C 88 % 15 lf 999,4 hPa 0,0 l/m 0 min 2 min 5 W/m 23,0 km/h (4 Bft) 91,49 %
21.11.2016 19:26 12,6 C 11,1 C 10,0 C 88 % 15 lf 999,4 hPa 0,0 l/m 0 min 2 min 5 W/m 16,7 km/h (3 Bft) 87,23 %
21.11.2016 19:28 12,6 C 11,1 C 10,0 C 89 % 15 lf 999,6 hPa 0,0 l/m 0 min 2 min 5 W/m 18,8 km/h (3 Bft) 91,49 %
21.11.2016 19:30 12,6 C 11,1 C 10,0 C 89 % 15 lf 999,6 hPa 0,0 l/m 0 min 2 min 5 W/m 12,6 km/h (3 Bft) 91,49 %
21.11.2016 19:32 12,6 C 11,1 C 10,0 C 89 % 15 lf 999,6 hPa 0,0 l/m 0 min 2 min 5 W/m 16,7 km/h (3 Bft) 86,96 %
21.11.2016 19:34 12,5 C 11,1 C 10,0 C 90 % 15 lf 999,6 hPa 0,0 l/m 0 min 0 min 5 W/m 10,5 km/h (2 Bft) 89,36 %
21.11.2016 19:36 12,5 C 11,1 C 10,0 C 90 % 14 lf 999,6 hPa 0,0 l/m 0 min 0 min 5 W/m 12,6 km/h (3 Bft) 87,23 %
21.11.2016 19:38 12,5 C 11,1 C 10,0 C 90 % 14 lf 999,7 hPa 0,2 l/m 0 min 0 min 5 W/m 12,6 km/h (3 Bft) 91,49 %
21.11.2016 19:40 12,4 C 11,1 C 10,0 C 90 % 13 lf 999,6 hPa 0,0 l/m 0 min 2 min 5 W/m 12,6 km/h (3 Bft) 91,49 %
21.11.2016 19:42 12,4 C 11,1 C 9,4 C 90 % 11 lf 999,5 hPa 0,0 l/m 0 min 2 min 5 W/m 14,6 km/h (3 Bft) 91,49 %
21.11.2016 19:44 12,4 C 11,1 C 9,4 C 90 % 11 lf 999,6 hPa 0,0 l/m 0 min 2 min 5 W/m 10,5 km/h (2 Bft) 93,48 %
21.11.2016 19:46 12,3 C 11,1 C 9,4 C 90 % 10 lf 999,7 hPa 0,0 l/m 0 min 2 min 5 W/m 12,6 km/h (3 Bft) 91,49 %
21.11.2016 19:48 12,3 C 11,1 C 9,4 C 90 % 9 lf 999,7 hPa 0,0 l/m 0 min 2 min 5 W/m 12,6 km/h (3 Bft) 93,62 %
21.11.2016 19:50 12,3 C 11,1 C 9,4 C 90 % 6 lf 999,7 hPa 0,0 l/m 0 min 2 min 5 W/m 12,6 km/h (3 Bft) 95,74 %
21.11.2016 19:52 12,3 C 11,1 C 9,4 C 90 % 4 lf 999,8 hPa 0,0 l/m 0 min 2 min 5 W/m 14,6 km/h (3 Bft) 97,87 %
21.11.2016 19:54 12,2 C 11,1 C 9,4 C 91 % 3 lf 999,7 hPa 0,0 l/m 0 min 2 min 5 W/m 14,6 km/h (3 Bft) 97,87 %
21.11.2016 19:56 12,2 C 11,1 C 9,4 C 91 % 3 lf 999,8 hPa 0,0 l/m 0 min 2 min 5 W/m 10,5 km/h (2 Bft) 97,83 %
21.11.2016 19:58 12,2 C 11,1 C 9,4 C 91 % 2 lf 999,7 hPa 0,0 l/m 0 min 2 min 5 W/m 12,6 km/h (3 Bft) 91,49 %
21.11.2016 20:00 12,1 C 11,1 C 9,4 C 91 % 1 lf 999,7 hPa 0,0 l/m 0 min 2 min 5 W/m 14,6 km/h (3 Bft) 97,87 %
21.11.2016 20:02 12,1 C 11,1 C 9,4 C 91 % 0 lf 999,5 hPa 0,0 l/m 0 min 2 min 5 W/m 14,6 km/h (3 Bft) 95,74 %
21.11.2016 20:04 12,1 C 11,1 C 9,4 C 91 % 1 lf 999,4 hPa 0,0 l/m 0 min 2 min 5 W/m 10,5 km/h (2 Bft) 97,87 %
21.11.2016 20:06 12,1 C 10,6 C 9,4 C 91 % 1 lf 999,5 hPa 0,0 l/m 0 min 2 min 5 W/m 10,5 km/h (2 Bft) 95,74 %
21.11.2016 20:08 12,0 C 10,6 C 9,4 C 91 % 2 lf 999,5 hPa 0,0 l/m 0 min 2 min 5 W/m 14,6 km/h (3 Bft) 97,83 %
21.11.2016 20:10 12,0 C 10,6 C 9,4 C 91 % 4 lf 999,5 hPa 0,0 l/m 0 min 2 min 5 W/m 10,5 km/h (2 Bft) 95,74 %
21.11.2016 20:12 12,0 C 10,6 C 9,4 C 91 % 3 lf 999,6 hPa 0,0 l/m 0 min 2 min 5 W/m 8,4 km/h (2 Bft) 97,87 %
21.11.2016 20:14 11,9 C 10,6 C 9,4 C 91 % 3 lf 999,7 hPa 0,0 l/m 0 min 2 min 5 W/m 8,4 km/h (2 Bft) 93,62 %
21.11.2016 20:16 11,9 C 10,6 C 9,4 C 91 % 2 lf 999,7 hPa 0,0 l/m 0 min 0 min 5 W/m 8,4 km/h (2 Bft) 95,74 %
21.11.2016 20:18 11,9 C 10,6 C 9,4 C 91 % 2 lf 999,7 hPa 0,0 l/m 0 min 2 min 5 W/m 10,5 km/h (2 Bft) 93,62 %
21.11.2016 20:20 11,9 C 10,6 C 9,4 C 91 % 1 lf 999,7 hPa 0,0 l/m 0 min 2 min 5 W/m 10,5 km/h (2 Bft) 93,48 %
21.11.2016 20:22 11,8 C 10,6 C 9,4 C 91 % 1 lf 999,6 hPa 0,0 l/m 0 min 2 min 5 W/m 10,5 km/h (2 Bft) 95,74 %
21.11.2016 20:24 11,8 C 10,6 C 9,4 C 91 % 1 lf 999,6 hPa 0,0 l/m 0 min 2 min 5 W/m 8,4 km/h (2 Bft) 97,87 %
21.11.2016 20:26 11,8 C 10,6 C 9,4 C 92 % 2 lf 999,6 hPa 0,0 l/m 0 min 2 min 5 W/m 14,6 km/h (3 Bft) 95,74 %
21.11.2016 20:28 11,8 C 10,6 C 9,4 C 92 % 1 lf 999,6 hPa 0,2 l/m 0 min 2 min 5 W/m 10,5 km/h (2 Bft) 97,87 %
21.11.2016 20:30 11,8 C 10,6 C 9,4 C 92 % 1 lf 999,5 hPa 0,0 l/m 0 min 2 min 5 W/m 12,6 km/h (3 Bft) 95,74 %
21.11.2016 20:32 11,7 C 10,6 C 9,4 C 92 % 0 lf 999,4 hPa 0,0 l/m 0 min 2 min 5 W/m 12,6 km/h (3 Bft) 95,65 %
21.11.2016 20:34 11,7 C 10,6 C 9,4 C 92 % 2 lf 999,4 hPa 0,0 l/m 0 min 2 min 5 W/m 14,6 km/h (3 Bft) 95,74 %
21.11.2016 20:36 11,7 C 10,6 C 9,4 C 92 % 2 lf 999,4 hPa 0,0 l/m 0 min 2 min 5 W/m 12,6 km/h (3 Bft) 95,74 %
21.11.2016 20:38 11,6 C 10,6 C 8,9 C 92 % 3 lf 999,2 hPa 0,0 l/m 0 min 2 min 5 W/m 16,7 km/h (3 Bft) 93,62 %
21.11.2016 20:40 11,6 C 10,6 C 8,9 C 92 % 2 lf 999,3 hPa 0,0 l/m 0 min 2 min 5 W/m 20,9 km/h (4 Bft) 95,74 %
21.11.2016 20:42 11,6 C 10,6 C 8,9 C 92 % 2 lf 999,3 hPa 0,0 l/m 0 min 2 min 5 W/m 14,6 km/h (3 Bft) 97,87 %
21.11.2016 20:44 11,5 C 10,6 C 8,9 C 92 % 1 lf 999,3 hPa 0,2 l/m 0 min 2 min 5 W/m 18,8 km/h (3 Bft) 97,83 %
21.11.2016 20:46 11,4 C 10,6 C 8,9 C 92 % 1 lf 999,3 hPa 0,0 l/m 0 min 2 min 5 W/m 23,0 km/h (4 Bft) 95,74 %
21.11.2016 20:48 11,4 C 10,6 C 8,9 C 92 % 0 lf 999,2 hPa 0,0 l/m 0 min 2 min 5 W/m 20,9 km/h (4 Bft) 93,62 %
21.11.2016 20:50 11,4 C 10,6 C 8,9 C 92 % 1 lf 999,0 hPa 0,0 l/m 0 min 2 min 5 W/m 23,0 km/h (4 Bft) 97,87 %
21.11.2016 20:52 11,4 C 10,6 C 8,9 C 92 % 0 lf 998,8 hPa 0,0 l/m 0 min 2 min 5 W/m 27,2 km/h (4 Bft) 95,74 %
21.11.2016 20:54 11,3 C 10,6 C 8,9 C 92 % 0 lf 998,8 hPa 0,0 l/m 0 min 2 min 5 W/m 18,8 km/h (3 Bft) 97,87 %
21.11.2016 20:56 11,3 C 10,6 C 8,9 C 92 % 0 lf 999,0 hPa 0,0 l/m 0 min 0 min 5 W/m 16,7 km/h (3 Bft) 95,65 %
21.11.2016 20:58 11,3 C 10,6 C 8,9 C 92 % 0 lf 999,1 hPa 0,0 l/m 0 min 2 min 5 W/m 18,8 km/h (3 Bft) 95,74 %
21.11.2016 21:00 11,3 C 10,6 C 8,9 C 92 % 0 lf 999,2 hPa 0,0 l/m 0 min 0 min 5 W/m 16,7 km/h (3 Bft) 97,87 %
21.11.2016 21:02 11,3 C 10,6 C 8,9 C 92 % 0 lf 999,3 hPa 0,0 l/m 0 min 2 min 5 W/m 16,7 km/h (3 Bft) 97,87 %
21.11.2016 21:04 11,3 C 10,6 C 8,9 C 92 % 0 lf 999,4 hPa 0,0 l/m 0 min 2 min 5 W/m 14,6 km/h (3 Bft) 97,87 %
21.11.2016 21:06 11,3 C 10,6 C 8,9 C 92 % 0 lf 999,3 hPa 0,0 l/m 0 min 2 min 5 W/m 16,7 km/h (3 Bft) 100,00 %
21.11.2016 21:08 11,3 C 10,6 C 8,9 C 92 % 0 lf 999,4 hPa 0,0 l/m 0 min 2 min 5 W/m 12,6 km/h (3 Bft) 93,62 %
21.11.2016 21:10 11,3 C 10,6 C 8,9 C 92 % 0 lf 999,3 hPa 0,0 l/m 0 min 2 min 5 W/m 14,6 km/h (3 Bft) 97,87 %
21.11.2016 21:12 11,3 C 10,6 C 8,9 C 92 % 0 lf 999,2 hPa 0,0 l/m 0 min 2 min 5 W/m 16,7 km/h (3 Bft) 97,87 %
21.11.2016 21:14 11,3 C 10,6 C 8,9 C 93 % 0 lf 999,3 hPa 0,0 l/m 0 min 0 min 5 W/m 20,9 km/h (4 Bft) 97,87 %
21.11.2016 21:16 11,3 C 10,6 C 8,9 C 93 % 0 lf 999,4 hPa 0,0 l/m 0 min 0 min 5 W/m 20,9 km/h (4 Bft) 95,74 %
21.11.2016 21:18 11,3 C 10,6 C 8,9 C 93 % 0 lf 999,4 hPa 0,0 l/m 0 min 0 min 5 W/m 20,9 km/h (4 Bft) 97,83 %
21.11.2016 21:20 11,3 C 10,6 C 8,9 C 92 % 0 lf 999,5 hPa 0,0 l/m 0 min 0 min 5 W/m 25,1 km/h (4 Bft) 95,74 %
21.11.2016 21:22 11,3 C 10,6 C 8,9 C 92 % 0 lf 999,5 hPa 0,0 l/m 0 min 0 min 5 W/m 29,3 km/h (5 Bft) 97,87 %
21.11.2016 21:24 11,4 C 10,6 C 8,9 C 92 % 0 lf 999,4 hPa 0,0 l/m 0 min 0 min 5 W/m 20,9 km/h (4 Bft) 95,74 %
21.11.2016 21:26 11,4 C 10,6 C 8,9 C 92 % 0 lf 999,4 hPa 0,0 l/m 0 min 2 min 5 W/m 23,0 km/h (4 Bft) 93,62 %
21.11.2016 21:28 11,4 C 10,6 C 8,9 C 92 % 0 lf 999,3 hPa 0,0 l/m 0 min 0 min 5 W/m 25,1 km/h (4 Bft) 95,74 %
21.11.2016 21:30 11,4 C 10,6 C 8,9 C 92 % 0 lf 999,3 hPa 0,0 l/m 0 min 0 min 5 W/m 23,0 km/h (4 Bft) 100,00 %
21.11.2016 21:32 11,4 C 10,6 C 8,9 C 92 % 0 lf 999,3 hPa 0,0 l/m 0 min 0 min 5 W/m 23,0 km/h (4 Bft) 97,87 %
21.11.2016 21:34 11,4 C 10,6 C 8,9 C 92 % 0 lf 999,4 hPa 0,0 l/m 0 min 0 min 5 W/m 27,2 km/h (4 Bft) 100,00 %
21.11.2016 21:36 11,5 C 10,6 C 8,9 C 91 % 0 lf 999,5 hPa 0,0 l/m 0 min 0 min 5 W/m 25,1 km/h (4 Bft) 93,62 %
21.11.2016 21:38 11,5 C 10,6 C 8,9 C 91 % 0 lf 999,5 hPa 0,0 l/m 0 min 0 min 5 W/m 29,3 km/h (5 Bft) 97,87 %
21.11.2016 21:40 11,5 C 10,6 C 8,9 C 91 % 0 lf 999,4 hPa 0,0 l/m 0 min 0 min 5 W/m 35,6 km/h (5 Bft) 100,00 %
21.11.2016 21:42 11,6 C 10,6 C 8,9 C 91 % 0 lf 999,4 hPa 0,0 l/m 0 min 2 min 5 W/m 33,5 km/h (5 Bft) 100,00 %
21.11.2016 21:44 11,6 C 10,6 C 9,4 C 91 % 0 lf 999,4 hPa 0,0 l/m 0 min 2 min 5 W/m 33,5 km/h (5 Bft) 95,74 %
21.11.2016 21:46 11,6 C 10,6 C 9,4 C 91 % 0 lf 999,3 hPa 0,0 l/m 0 min 2 min 5 W/m 31,4 km/h (5 Bft) 97,87 %
21.11.2016 21:48 11,7 C 10,6 C 9,4 C 90 % 0 lf 999,4 hPa 0,0 l/m 0 min 2 min 5 W/m 41,8 km/h (6 Bft) 97,87 %
21.11.2016 21:50 11,7 C 10,6 C 9,4 C 90 % 0 lf 999,4 hPa 0,0 l/m 0 min 2 min 5 W/m 43,9 km/h (6 Bft) 95,74 %
21.11.2016 21:52 11,7 C 10,6 C 9,4 C 90 % 0 lf 999,5 hPa 0,0 l/m 0 min 2 min 5 W/m 39,7 km/h (6 Bft) 95,74 %
21.11.2016 21:54 11,8 C 10,6 C 9,4 C 90 % 0 lf 999,5 hPa 0,0 l/m 0 min 2 min 5 W/m 37,7 km/h (5 Bft) 97,83 %
21.11.2016 21:56 11,8 C 10,6 C 9,4 C 90 % 0 lf 999,6 hPa 0,0 l/m 0 min 2 min 5 W/m 27,2 km/h (4 Bft) 95,74 %
21.11.2016 21:58 11,8 C 10,6 C 9,4 C 90 % 0 lf 999,7 hPa 0,0 l/m 0 min 2 min 5 W/m 35,6 km/h (5 Bft) 95,74 %
21.11.2016 22:00 11,8 C 10,6 C 9,4 C 90 % 0 lf 999,5 hPa 0,2 l/m 0 min 2 min 5 W/m 25,1 km/h (4 Bft) 89,36 %
21.11.2016 22:02 11,9 C 10,6 C 9,4 C 90 % 0 lf 999,4 hPa 0,0 l/m 0 min 2 min 5 W/m 25,1 km/h (4 Bft) 93,62 %
21.11.2016 22:04 11,9 C 10,6 C 9,4 C 90 % 0 lf 999,5 hPa 0,0 l/m 0 min 2 min 5 W/m 23,0 km/h (4 Bft) 93,62 %
21.11.2016 22:06 11,9 C 10,6 C 9,4 C 91 % 0 lf 999,8 hPa 0,0 l/m 0 min 2 min 5 W/m 33,5 km/h (5 Bft) 93,48 %
21.11.2016 22:08 11,9 C 10,6 C 9,4 C 91 % 1 lf 1000,0 hPa 0,0 l/m 0 min 2 min 5 W/m 31,4 km/h (5 Bft) 93,62 %
21.11.2016 22:10 11,9 C 10,6 C 9,4 C 91 % 0 lf 1000,2 hPa 0,0 l/m 0 min 2 min 5 W/m 33,5 km/h (5 Bft) 95,74 %
21.11.2016 22:12 11,8 C 10,6 C 9,4 C 91 % 2 lf 1000,3 hPa 0,2 l/m 0 min 2 min 5 W/m 31,4 km/h (5 Bft) 91,49 %
21.11.2016 22:14 11,8 C 10,6 C 9,4 C 91 % 2 lf 1000,3 hPa 0,0 l/m 0 min 2 min 5 W/m 31,4 km/h (5 Bft) 95,74 %
21.11.2016 22:16 11,8 C 10,6 C 9,4 C 91 % 1 lf 1000,1 hPa 0,0 l/m 0 min 2 min 5 W/m 29,3 km/h (5 Bft) 93,62 %
21.11.2016 22:18 11,8 C 10,6 C 9,4 C 91 % 2 lf 1000,2 hPa 0,2 l/m 0 min 2 min 5 W/m 27,2 km/h (4 Bft) 91,30 %
21.11.2016 22:20 11,8 C 10,6 C 9,4 C 92 % 1 lf 1000,2 hPa 0,0 l/m 0 min 2 min 5 W/m 29,3 km/h (5 Bft) 95,74 %
21.11.2016 22:22 11,8 C 10,6 C 9,4 C 92 % 0 lf 1000,2 hPa 0,0 l/m 0 min 2 min 5 W/m 27,2 km/h (4 Bft) 93,62 %
21.11.2016 22:24 11,7 C 10,6 C 9,4 C 92 % 0 lf 1000,4 hPa 0,0 l/m 0 min 2 min 5 W/m 23,0 km/h (4 Bft) 95,74 %
21.11.2016 22:26 11,7 C 10,6 C 9,4 C 92 % 1 lf 1000,4 hPa 0,0 l/m 0 min 2 min 5 W/m 23,0 km/h (4 Bft) 95,74 %
21.11.2016 22:28 11,7 C 10,6 C 9,4 C 92 % 1 lf 1000,4 hPa 0,0 l/m 0 min 2 min 5 W/m 25,1 km/h (4 Bft) 95,74 %
21.11.2016 22:30 11,7 C 10,6 C 9,4 C 92 % 0 lf 1000,5 hPa 0,0 l/m 0 min 2 min 5 W/m 25,1 km/h (4 Bft) 93,48 %
21.11.2016 22:32 11,7 C 10,6 C 9,4 C 92 % 0 lf 1000,5 hPa 0,2 l/m 0 min 2 min 5 W/m 23,0 km/h (4 Bft) 97,87 %
21.11.2016 22:34 11,7 C 10,6 C 9,4 C 93 % 0 lf 1000,4 hPa 0,0 l/m 0 min 2 min 5 W/m 39,7 km/h (6 Bft) 97,87 %
21.11.2016 22:36 11,6 C 10,6 C 9,4 C 93 % 1 lf 1000,4 hPa 0,0 l/m 0 min 2 min 5 W/m 25,1 km/h (4 Bft) 91,49 %
21.11.2016 22:38 11,6 C 10,6 C 9,4 C 93 % 0 lf 1000,4 hPa 0,0 l/m 0 min 2 min 5 W/m 25,1 km/h (4 Bft) 97,87 %
21.11.2016 22:40 11,6 C 10,6 C 9,4 C 93 % 0 lf 1000,4 hPa 0,0 l/m 0 min 2 min 5 W/m 23,0 km/h (4 Bft) 95,65 %
21.11.2016 22:42 11,6 C 10,6 C 9,4 C 93 % 0 lf 1000,5 hPa 0,0 l/m 0 min 2 min 5 W/m 29,3 km/h (5 Bft) 97,87 %
21.11.2016 22:44 11,6 C 10,6 C 9,4 C 93 % 0 lf 1000,6 hPa 0,0 l/m 0 min 2 min 5 W/m 25,1 km/h (4 Bft) 97,87 %
21.11.2016 22:46 11,6 C 10,6 C 9,4 C 93 % 0 lf 1000,5 hPa 0,0 l/m 0 min 2 min 5 W/m 23,0 km/h (4 Bft) 95,74 %
21.11.2016 22:48 11,6 C 11,1 C 9,4 C 93 % 0 lf 1000,5 hPa 0,0 l/m 0 min 2 min 5 W/m 27,2 km/h (4 Bft) 95,74 %
21.11.2016 22:50 11,6 C 11,1 C 9,4 C 93 % 0 lf 1000,5 hPa 0,0 l/m 0 min 2 min 5 W/m 23,0 km/h (4 Bft) 91,49 %
21.11.2016 22:52 11,6 C 11,1 C 9,4 C 93 % 0 lf 1000,3 hPa 0,0 l/m 0 min 2 min 5 W/m 31,4 km/h (5 Bft) 89,13 %
21.11.2016 22:54 11,6 C 11,1 C 9,4 C 94 % 0 lf 1000,3 hPa 0,0 l/m 0 min 2 min 5 W/m 27,2 km/h (4 Bft) 97,87 %
21.11.2016 22:56 11,6 C 11,1 C 9,4 C 94 % 0 lf 1000,5 hPa 0,0 l/m 0 min 2 min 5 W/m 31,4 km/h (5 Bft) 95,74 %
21.11.2016 22:58 11,6 C 11,1 C 9,4 C 94 % 0 lf 1000,7 hPa 0,0 l/m 0 min 2 min 5 W/m 29,3 km/h (5 Bft) 95,74 %
21.11.2016 23:00 11,6 C 11,1 C 9,4 C 94 % 0 lf 1000,8 hPa 0,0 l/m 0 min 0 min 5 W/m 33,5 km/h (5 Bft) 95,74 %
21.11.2016 23:02 11,6 C 11,1 C 9,4 C 94 % 0 lf 1001,0 hPa 0,0 l/m 0 min 2 min 5 W/m 29,3 km/h (5 Bft) 97,87 %
21.11.2016 23:04 11,7 C 11,1 C 9,4 C 94 % 0 lf 1001,2 hPa 0,0 l/m 0 min 2 min 5 W/m 29,3 km/h (5 Bft) 97,83 %
21.11.2016 23:06 11,7 C 11,1 C 9,4 C 94 % 0 lf 1001,4 hPa 0,0 l/m 0 min 2 min 5 W/m 25,1 km/h (4 Bft) 93,62 %
21.11.2016 23:08 11,7 C 11,1 C 9,4 C 94 % 0 lf 1001,4 hPa 0,0 l/m 0 min 2 min 5 W/m 23,0 km/h (4 Bft) 89,36 %
21.11.2016 23:10 11,7 C 11,1 C 9,4 C 94 % 0 lf 1001,5 hPa 0,0 l/m 0 min 2 min 5 W/m 31,4 km/h (5 Bft) 95,74 %
21.11.2016 23:12 11,7 C 11,1 C 9,4 C 94 % 0 lf 1001,4 hPa 0,0 l/m 0 min 2 min 5 W/m 27,2 km/h (4 Bft) 95,74 %
21.11.2016 23:14 11,7 C 11,1 C 9,4 C 94 % 0 lf 1001,5 hPa 0,0 l/m 0 min 2 min 5 W/m 23,0 km/h (4 Bft) 95,74 %
21.11.2016 23:16 11,7 C 11,1 C 9,4 C 94 % 1 lf 1001,6 hPa 0,0 l/m 0 min 2 min 5 W/m 29,3 km/h (5 Bft) 97,83 %
21.11.2016 23:18 11,7 C 11,1 C 9,4 C 94 % 2 lf 1001,6 hPa 0,0 l/m 0 min 2 min 5 W/m 29,3 km/h (5 Bft) 100,00 %
21.11.2016 23:20 11,7 C 11,1 C 9,4 C 94 % 2 lf 1001,7 hPa 0,0 l/m 0 min 2 min 5 W/m 25,1 km/h (4 Bft) 100,00 %
21.11.2016 23:22 11,8 C 11,1 C 9,4 C 94 % 1 lf 1001,6 hPa 0,0 l/m 0 min 2 min 5 W/m 27,2 km/h (4 Bft) 100,00 %
21.11.2016 23:24 11,7 C 10,6 C 9,4 C 93 % 2 lf 1001,6 hPa 0,0 l/m 0 min 2 min 5 W/m 27,2 km/h (4 Bft) 97,87 %
21.11.2016 23:26 11,8 C 10,6 C 9,4 C 93 % 2 lf 1001,5 hPa 0,0 l/m 0 min 2 min 5 W/m 20,9 km/h (4 Bft) 95,65 %
21.11.2016 23:28 11,8 C 10,6 C 9,4 C 93 % 2 lf 1001,4 hPa 0,0 l/m 0 min 2 min 5 W/m 16,7 km/h (3 Bft) 97,87 %
21.11.2016 23:30 11,8 C 10,6 C 9,4 C 93 % 1 lf 1001,3 hPa 0,2 l/m 0 min 2 min 5 W/m 18,8 km/h (3 Bft) 93,62 %
21.11.2016 23:32 11,7 C 10,6 C 9,4 C 93 % 0 lf 1001,3 hPa 0,0 l/m 0 min 2 min 5 W/m 20,9 km/h (4 Bft) 100,00 %
21.11.2016 23:34 11,7 C 10,6 C 9,4 C 93 % 0 lf 1001,3 hPa 0,0 l/m 0 min 2 min 5 W/m 31,4 km/h (5 Bft) 100,00 %
21.11.2016 23:36 11,7 C 10,6 C 9,4 C 93 % 0 lf 1000,9 hPa 0,0 l/m 0 min 2 min 5 W/m 25,1 km/h (4 Bft) 100,00 %
21.11.2016 23:38 11,7 C 10,6 C 9,4 C 93 % 1 lf 1000,8 hPa 0,0 l/m 0 min 2 min 5 W/m 23,0 km/h (4 Bft) 97,83 %
21.11.2016 23:40 11,7 C 10,6 C 9,4 C 93 % 1 lf 1000,7 hPa 0,0 l/m 0 min 2 min 5 W/m 25,1 km/h (4 Bft) 97,87 %
21.11.2016 23:42 11,7 C 10,6 C 9,4 C 93 % 0 lf 1000,6 hPa 0,0 l/m 0 min 2 min 5 W/m 14,6 km/h (3 Bft) 97,87 %
21.11.2016 23:44 11,7 C 10,6 C 9,4 C 93 % 0 lf 1000,8 hPa 0,0 l/m 0 min 2 min 5 W/m 20,9 km/h (4 Bft) 95,74 %
21.11.2016 23:46 11,7 C 10,6 C 9,4 C 93 % 0 lf 1001,0 hPa 0,0 l/m 0 min 2 min 5 W/m 20,9 km/h (4 Bft) 97,87 %
21.11.2016 23:48 11,6 C 10,6 C 9,4 C 93 % 0 lf 1000,9 hPa 0,0 l/m 0 min 2 min 5 W/m 18,8 km/h (3 Bft) 97,87 %
21.11.2016 23:50 11,6 C 10,6 C 9,4 C 93 % 2 lf 1000,8 hPa 0,0 l/m 0 min 2 min 5 W/m 16,7 km/h (3 Bft) 97,83 %
21.11.2016 23:52 11,6 C 10,6 C 9,4 C 93 % 1 lf 1000,8 hPa 0,0 l/m 0 min 2 min 5 W/m 23,0 km/h (4 Bft) 95,74 %
21.11.2016 23:54 11,6 C 10,6 C 9,4 C 93 % 0 lf 1000,8 hPa 0,0 l/m 0 min 2 min 5 W/m 20,9 km/h (4 Bft) 95,74 %
21.11.2016 23:56 11,6 C 10,6 C 9,4 C 93 % 0 lf 1000,8 hPa 0,0 l/m 0 min 2 min 5 W/m 18,8 km/h (3 Bft) 97,87 %
21.11.2016 23:58 11,6 C 10,6 C 9,4 C 93 % 0 lf 1000,9 hPa 0,0 l/m 0 min 2 min 5 W/m 23,0 km/h (4 Bft) 97,87 %
_ Min-Zeit 00:05 19:12 00:00 13:40 00:00 16:08 - - - - 00:46 10:58
Minimum _ 11,1 C 10,6 C 8,9 C 76 % 0 lf 997,2 hPa - - - - 6,3 km/h (2 Bft) 84,78 %
_ Max-Zeit 13:34 13:26 13:28 22:54 19:10 23:20 09:50 15:44 03:04 13:28 12:38 01:20
Maximum _ 14,2 C 15,0 C 13,3 C 94 % 15 lf 1001,7 hPa 0,2 l/m 2 min 2 min 147 W/m 46,0 km/h
S-SO (6 Bft)
100,00 %
Durchschnitt _ 12,7 C 12,4 C 10,6 C 85 % 1 lf 998,9 hPa #2,6 l/m #4 min. #9:11 h 20 W/m 23,3 km/h (4 Bft) 95,85 %
© 2016 W. Hausmann